| time (UTC) | temp C | wind direction | speed KPH | gust KPH | rain 1hr cm | rain 24hr cm | rain mn cm | humidity % | barometer mb |
| 20260508214902 | 17 | 224 | 1.6 | 8.0 | 0.00 | 0.00 | 0.00 | 36 | 1006.0 |
| 20260508214802 | 17 | 227 | 1.6 | 6.4 | 0.00 | 0.00 | 0.00 | 35 | 1005.9 |
| 20260508214702 | 17 | 227 | 1.6 | 6.4 | 0.00 | 0.00 | 0.00 | 34 | 1005.9 |
| 20260508214602 | 17 | 223 | 1.6 | 6.4 | 0.00 | 0.00 | 0.00 | 35 | 1005.9 |
| 20260508214523 | 17 | 234 | 0.0 | 6.4 | 0.00 | 0.00 | 0.00 | 35 | 1005.9 |
| 20260508214402 | 17 | 262 | 0.0 | 3.2 | 0.00 | 0.00 | 0.00 | 35 | 1006.0 |
| 20260508214323 | 17 | 250 | 0.0 | 4.8 | 0.00 | 0.00 | 0.00 | 35 | 1006.0 |
| 20260508214202 | 17 | 239 | 0.0 | 4.8 | 0.00 | 0.00 | 0.00 | 35 | 1006.1 |
| 20260508214102 | 17 | 232 | 1.6 | 8.0 | 0.00 | 0.00 | 0.00 | 35 | 1006.1 |
| 20260508214023 | 17 | 229 | 1.6 | 8.0 | 0.00 | 0.00 | 0.00 | 35 | 1006.1 |
| 20260508213902 | 17 | 225 | 1.6 | 8.0 | 0.00 | 0.00 | 0.00 | 35 | 1006.1 |
| 20260508213802 | 17 | 224 | 1.6 | 8.0 | 0.00 | 0.00 | 0.00 | 35 | 1006.1 |
| 20260508213702 | 17 | 224 | 1.6 | 8.0 | 0.00 | 0.00 | 0.00 | 36 | 1006.1 |
| 20260508213602 | 17 | 223 | 1.6 | 8.0 | 0.00 | 0.00 | 0.00 | 37 | 1006.1 |
| 20260508213502 | 17 | 221 | 3.2 | 8.0 | 0.00 | 0.00 | 0.00 | 35 | 1006.0 |
| 20260508213402 | 17 | 218 | 3.2 | 8.0 | 0.00 | 0.00 | 0.00 | 35 | 1006.0 |
| 20260508213302 | 17 | 216 | 1.6 | 8.0 | 0.00 | 0.00 | 0.00 | 35 | 1006.1 |
| 20260508213223 | 17 | 215 | 1.6 | 8.0 | 0.00 | 0.00 | 0.00 | 34 | 1006.1 |
| 20260508213102 | 17 | 213 | 1.6 | 8.0 | 0.00 | 0.00 | 0.00 | 33 | 1006.1 |
| 20260508213002 | 17 | 212 | 1.6 | 8.0 | 0.00 | 0.00 | 0.00 | 34 | 1006.1 |
| 20260508212902 | 17 | 215 | 1.6 | 8.0 | 0.00 | 0.00 | 0.00 | 34 | 1006.1 |
| 20260508212802 | 17 | 214 | 1.6 | 8.0 | 0.00 | 0.00 | 0.00 | 36 | 1006.2 |
| 20260508212702 | 17 | 213 | 1.6 | 6.4 | 0.00 | 0.00 | 0.00 | 33 | 1006.1 |
| 20260508212602 | 17 | 215 | 1.6 | 6.4 | 0.00 | 0.00 | 0.00 | 33 | 1006.1 |
| 20260508212523 | 17 | 216 | 1.6 | 6.4 | 0.00 | 0.00 | 0.00 | 34 | 1006.1 |
| 20260508212402 | 17 | 226 | 1.6 | 6.4 | 0.00 | 0.00 | 0.00 | 34 | 1006.1 |
| 20260508212306 | 17 | 225 | 1.6 | 6.4 | 0.00 | 0.00 | 0.00 | 33 | 1006.1 |
| 20260508212202 | 17 | 226 | 1.6 | 6.4 | 0.00 | 0.00 | 0.00 | 33 | 1006.2 |
| 20260508212102 | 17 | 226 | 1.6 | 6.4 | 0.00 | 0.00 | 0.00 | 33 | 1006.2 |
| 20260508212002 | 17 | 225 | 1.6 | 8.0 | 0.00 | 0.00 | 0.00 | 33 | 1006.2 |
| 20260508211902 | 17 | 225 | 1.6 | 8.0 | 0.00 | 0.00 | 0.00 | 36 | 1006.2 |
| 20260508211802 | 17 | 225 | 1.6 | 8.0 | 0.00 | 0.00 | 0.00 | 35 | 1006.2 |
| 20260508211702 | 17 | 224 | 3.2 | 9.7 | 0.00 | 0.00 | 0.00 | 34 | 1006.2 |
| 20260508211602 | 17 | 224 | 3.2 | 9.7 | 0.00 | 0.00 | 0.00 | 35 | 1006.2 |
| 20260508211502 | 17 | 224 | 3.2 | 9.7 | 0.00 | 0.00 | 0.00 | 34 | 1006.1 |
| 20260508211402 | 17 | 223 | 3.2 | 9.7 | 0.00 | 0.00 | 0.00 | 33 | 1006.2 |
| 20260508211302 | 17 | 224 | 3.2 | 9.7 | 0.00 | 0.00 | 0.00 | 33 | 1006.2 |
| 20260508211223 | 17 | 223 | 3.2 | 9.7 | 0.00 | 0.00 | 0.00 | 34 | 1006.2 |
| 20260508211123 | 18 | 222 | 3.2 | 9.7 | 0.00 | 0.00 | 0.00 | 33 | 1006.2 |
| 20260508211023 | 18 | 223 | 3.2 | 9.7 | 0.00 | 0.00 | 0.00 | 34 | 1006.1 |
| 20260508210902 | 18 | 221 | 3.2 | 9.7 | 0.00 | 0.00 | 0.00 | 35 | 1006.1 |
| 20260508210802 | 18 | 219 | 1.6 | 9.7 | 0.00 | 0.00 | 0.00 | 33 | 1006.1 |
| 20260508210702 | 18 | 227 | 1.6 | 9.7 | 0.00 | 0.00 | 0.00 | 34 | 1006.2 |
| 20260508210602 | 18 | 228 | 1.6 | 9.7 | 0.00 | 0.00 | 0.00 | 34 | 1006.2 |
| 20260508210502 | 18 | 234 | 1.6 | 9.7 | 0.00 | 0.00 | 0.00 | 34 | 1006.2 |
| 20260508210402 | 18 | 241 | 1.6 | 9.7 | 0.00 | 0.00 | 0.00 | 35 | 1006.2 |
| 20260508210302 | 17 | 233 | 1.6 | 9.7 | 0.00 | 0.00 | 0.00 | 34 | 1006.2 |
| 20260508210203 | 17 | 243 | 1.6 | 9.7 | 0.00 | 0.00 | 0.00 | 33 | 1006.2 |
| 20260508210124 | 17 | 250 | 1.6 | 9.7 | 0.00 | 0.00 | 0.00 | 33 | 1006.2 |
| 20260508210002 | 17 | 251 | 1.6 | 9.7 | 0.00 | 0.00 | 0.00 | 32 | 1006.3 |
| 20260508205923 | 18 | 266 | 1.6 | 9.7 | 0.00 | 0.00 | 0.00 | 32 | 1006.3 |
| 20260508205802 | 18 | 251 | 1.6 | 9.7 | 0.00 | 0.00 | 0.00 | 33 | 1006.3 |
| 20260508205702 | 18 | 248 | 1.6 | 9.7 | 0.00 | 0.00 | 0.00 | 33 | 1006.4 |
| 20260508205602 | 18 | 249 | 1.6 | 9.7 | 0.00 | 0.00 | 0.00 | 34 | 1006.3 |
| 20260508205502 | 18 | 246 | 1.6 | 9.7 | 0.00 | 0.00 | 0.00 | 33 | 1006.3 |
| 20260508205402 | 18 | 244 | 1.6 | 9.7 | 0.00 | 0.00 | 0.00 | 33 | 1006.3 |
| 20260508205323 | 18 | 248 | 1.6 | 9.7 | 0.00 | 0.00 | 0.00 | 33 | 1006.3 |
| 20260508205202 | 18 | 244 | 1.6 | 11.3 | 0.00 | 0.00 | 0.00 | 33 | 1006.3 |
| 20260508205102 | 17 | 243 | 1.6 | 11.3 | 0.00 | 0.00 | 0.00 | 33 | 1006.4 |
| 20260508205023 | 17 | 241 | 1.6 | 11.3 | 0.00 | 0.00 | 0.00 | 33 | 1006.4 |
| 20260508204923 | 17 | 237 | 1.6 | 11.3 | 0.00 | 0.00 | 0.00 | 33 | 1006.3 |
| 20260508204802 | 17 | 243 | 1.6 | 11.3 | 0.00 | 0.00 | 0.00 | 33 | 1006.5 |
| 20260508204702 | 17 | 240 | 1.6 | 11.3 | 0.00 | 0.00 | 0.00 | 35 | 1006.5 |
| 20260508204623 | 17 | 241 | 1.6 | 11.3 | 0.00 | 0.00 | 0.00 | 34 | 1006.4 |
| 20260508204502 | 17 | 236 | 1.6 | 11.3 | 0.00 | 0.00 | 0.00 | 34 | 1006.4 |
| 20260508204423 | 17 | 233 | 3.2 | 11.3 | 0.00 | 0.00 | 0.00 | 33 | 1006.6 |
| 20260508204323 | 17 | 230 | 3.2 | 11.3 | 0.00 | 0.00 | 0.00 | 36 | 1006.6 |
| 20260508204202 | 17 | 225 | 3.2 | 9.7 | 0.00 | 0.00 | 0.00 | 33 | 1006.6 |
| 20260508204102 | 17 | 221 | 3.2 | 9.7 | 0.00 | 0.00 | 0.00 | 33 | 1006.5 |
| 20260508204002 | 17 | 219 | 3.2 | 9.7 | 0.00 | 0.00 | 0.00 | 33 | 1006.5 |
| 20260508203923 | 17 | 220 | 3.2 | 9.7 | 0.00 | 0.00 | 0.00 | 33 | 1006.5 |
| 20260508203823 | 17 | 219 | 3.2 | 9.7 | 0.00 | 0.00 | 0.00 | 31 | 1006.5 |
| 20260508203703 | 17 | 217 | 4.8 | 11.3 | 0.00 | 0.00 | 0.00 | 34 | 1006.6 |
| 20260508203602 | 17 | 216 | 4.8 | 11.3 | 0.00 | 0.00 | 0.00 | 35 | 1006.6 |
| 20260508203502 | 18 | 216 | 3.2 | 11.3 | 0.00 | 0.00 | 0.00 | 32 | 1006.5 |
| 20260508203402 | 18 | 216 | 3.2 | 11.3 | 0.00 | 0.00 | 0.00 | 33 | 1006.5 |
| 20260508203302 | 18 | 216 | 3.2 | 11.3 | 0.00 | 0.00 | 0.00 | 35 | 1006.6 |
| 20260508203202 | 18 | 218 | 3.2 | 11.3 | 0.00 | 0.00 | 0.00 | 36 | 1006.6 |
| 20260508203102 | 18 | 221 | 3.2 | 11.3 | 0.00 | 0.00 | 0.00 | 33 | 1006.6 |
| 20260508203002 | 18 | 225 | 1.6 | 11.3 | 0.00 | 0.00 | 0.00 | 34 | 1006.5 |
| 20260508202902 | 17 | 228 | 1.6 | 11.3 | 0.00 | 0.00 | 0.00 | 33 | 1006.5 |
| 20260508202802 | 18 | 232 | 1.6 | 11.3 | 0.00 | 0.00 | 0.00 | 34 | 1006.5 |
| 20260508202702 | 18 | 238 | 1.6 | 6.4 | 0.00 | 0.00 | 0.00 | 33 | 1006.5 |
| 20260508202623 | 17 | 244 | 1.6 | 6.4 | 0.00 | 0.00 | 0.00 | 33 | 1006.6 |
| 20260508202502 | 17 | 262 | 1.6 | 6.4 | 0.00 | 0.00 | 0.00 | 33 | 1006.6 |
| 20260508202423 | 17 | 277 | 1.6 | 4.8 | 0.00 | 0.00 | 0.00 | 33 | 1006.6 |
| 20260508202306 | 17 | 290 | 1.6 | 4.8 | 0.00 | 0.00 | 0.00 | 34 | 1006.7 |
| 20260508202202 | 17 | 297 | 1.6 | 4.8 | 0.00 | 0.00 | 0.00 | 33 | 1006.7 |
| 20260508202102 | 17 | 297 | 1.6 | 4.8 | 0.00 | 0.00 | 0.00 | 33 | 1006.7 |
| 20260508202002 | 17 | 302 | 1.6 | 4.8 | 0.00 | 0.00 | 0.00 | 34 | 1006.8 |
| 20260508201902 | 17 | 277 | 1.6 | 4.8 | 0.00 | 0.00 | 0.00 | 34 | 1006.8 |
| 20260508201802 | 17 | 250 | 1.6 | 6.4 | 0.00 | 0.00 | 0.00 | 35 | 1006.8 |
| 20260508201702 | 17 | 243 | 1.6 | 8.0 | 0.00 | 0.00 | 0.00 | 34 | 1006.8 |
| 20260508201602 | 17 | 237 | 1.6 | 8.0 | 0.00 | 0.00 | 0.00 | 34 | 1006.8 |
| 20260508201502 | 17 | 232 | 1.6 | 8.0 | 0.00 | 0.00 | 0.00 | 35 | 1006.9 |
| 20260508201402 | 17 | 228 | 1.6 | 8.0 | 0.00 | 0.00 | 0.00 | 35 | 1006.9 |
| 20260508201302 | 17 | 226 | 1.6 | 8.0 | 0.00 | 0.00 | 0.00 | 35 | 1006.9 |
| 20260508201224 | 17 | 227 | 3.2 | 8.0 | 0.00 | 0.00 | 0.00 | 35 | 1006.9 |
| 20260508201102 | 17 | 232 | 3.2 | 8.0 | 0.00 | 0.00 | 0.00 | 34 | 1006.9 |
| 20260508201002 | 17 | 231 | 3.2 | 8.0 | 0.00 | 0.00 | 0.00 | 34 | 1006.9 |
| 20260508200902 | 17 | 234 | 3.2 | 8.0 | 0.00 | 0.00 | 0.00 | 34 | 1006.9 |
| 20260508200802 | 17 | 237 | 3.2 | 8.0 | 0.00 | 0.00 | 0.00 | 36 | 1007.0 |
| 20260508200702 | 17 | 240 | 3.2 | 8.0 | 0.00 | 0.00 | 0.00 | 37 | 1007.0 |
| 20260508200602 | 17 | 242 | 3.2 | 8.0 | 0.00 | 0.00 | 0.00 | 36 | 1007.0 |
| 20260508200502 | 17 | 253 | 1.6 | 8.0 | 0.00 | 0.00 | 0.00 | 37 | 1007.1 |
| 20260508200402 | 17 | 265 | 1.6 | 8.0 | 0.00 | 0.00 | 0.00 | 36 | 1007.1 |
| 20260508200302 | 17 | 272 | 1.6 | 8.0 | 0.00 | 0.00 | 0.00 | 36 | 1007.1 |
| 20260508200202 | 17 | 269 | 1.6 | 8.0 | 0.00 | 0.00 | 0.00 | 36 | 1007.1 |
| 20260508200002 | 17 | 256 | 1.6 | 8.0 | 0.00 | 0.00 | 0.00 | 36 | 1007.1 |
| 20260508195902 | 17 | 242 | 3.2 | 8.0 | 0.00 | 0.00 | 0.00 | 36 | 1007.2 |
| 20260508195823 | 17 | 234 | 3.2 | 8.0 | 0.00 | 0.00 | 0.00 | 35 | 1007.2 |
| 20260508195723 | 17 | 237 | 3.2 | 8.0 | 0.00 | 0.00 | 0.00 | 34 | 1007.3 |
| 20260508195602 | 17 | 262 | 3.2 | 8.0 | 0.00 | 0.00 | 0.00 | 35 | 1007.3 |
| 20260508195523 | 17 | 263 | 3.2 | 8.0 | 0.00 | 0.00 | 0.00 | 33 | 1007.2 |
| 20260508195423 | 17 | 257 | 3.2 | 8.0 | 0.00 | 0.00 | 0.00 | 33 | 1007.2 |
| 20260508195305 | 17 | 254 | 3.2 | 8.0 | 0.00 | 0.00 | 0.00 | 35 | 1007.2 |
| 20260508195202 | 17 | 278 | 3.2 | 8.0 | 0.00 | 0.00 | 0.00 | 34 | 1007.3 |
| 20260508195102 | 17 | 289 | 3.2 | 8.0 | 0.00 | 0.00 | 0.00 | 35 | 1007.3 |
| 20260508195023 | 17 | 308 | 3.2 | 8.0 | 0.00 | 0.00 | 0.00 | 34 | 1007.3 |
| 20260508194902 | 17 | 327 | 1.6 | 8.0 | 0.00 | 0.00 | 0.00 | 36 | 1007.3 |
| 20260508194802 | 17 | 334 | 1.6 | 6.4 | 0.00 | 0.00 | 0.00 | 36 | 1007.3 |
| 20260508194702 | 17 | 333 | 1.6 | 6.4 | 0.00 | 0.00 | 0.00 | 35 | 1007.3 |
| 20260508194602 | 17 | 325 | 1.6 | 4.8 | 0.00 | 0.00 | 0.00 | 34 | 1007.3 |
| 20260508194523 | 17 | 323 | 1.6 | 4.8 | 0.00 | 0.00 | 0.00 | 35 | 1007.3 |
| 20260508194402 | 17 | 301 | 1.6 | 4.8 | 0.00 | 0.00 | 0.00 | 36 | 1007.3 |
| 20260508194302 | 17 | 292 | 1.6 | 4.8 | 0.00 | 0.00 | 0.00 | 35 | 1007.3 |
| 20260508194223 | 17 | 272 | 1.6 | 4.8 | 0.00 | 0.00 | 0.00 | 35 | 1007.3 |
| 20260508194123 | 17 | 255 | 1.6 | 4.8 | 0.00 | 0.00 | 0.00 | 34 | 1007.3 |
| 20260508194002 | 17 | 247 | 3.2 | 6.4 | 0.00 | 0.00 | 0.00 | 33 | 1007.4 |
| 20260508193902 | 17 | 251 | 3.2 | 6.4 | 0.00 | 0.00 | 0.00 | 33 | 1007.5 |
| 20260508193802 | 17 | 246 | 3.2 | 9.7 | 0.00 | 0.00 | 0.00 | 32 | 1007.5 |
| 20260508193702 | 17 | 240 | 3.2 | 9.7 | 0.00 | 0.00 | 0.00 | 31 | 1007.5 |
| 20260508193602 | 17 | 235 | 3.2 | 9.7 | 0.00 | 0.00 | 0.00 | 32 | 1007.6 |
| 20260508193502 | 17 | 234 | 3.2 | 9.7 | 0.00 | 0.00 | 0.00 | 33 | 1007.6 |
| 20260508193402 | 17 | 231 | 3.2 | 9.7 | 0.00 | 0.00 | 0.00 | 32 | 1007.6 |
| 20260508193302 | 17 | 228 | 3.2 | 9.7 | 0.00 | 0.00 | 0.00 | 33 | 1007.6 |
| 20260508193223 | 17 | 228 | 1.6 | 9.7 | 0.00 | 0.00 | 0.00 | 33 | 1007.6 |
| 20260508193123 | 17 | 227 | 1.6 | 9.7 | 0.00 | 0.00 | 0.00 | 34 | 1007.6 |
| 20260508193002 | 17 | 228 | 1.6 | 9.7 | 0.00 | 0.00 | 0.00 | 34 | 1007.6 |
| 20260508192923 | 17 | 228 | 1.6 | 9.7 | 0.00 | 0.00 | 0.00 | 34 | 1007.6 |
| 20260508192802 | 17 | 226 | 1.6 | 8.0 | 0.00 | 0.00 | 0.00 | 34 | 1007.6 |
| 20260508192702 | 17 | 226 | 1.6 | 8.0 | 0.00 | 0.00 | 0.00 | 33 | 1007.6 |
| 20260508192602 | 17 | 229 | 1.6 | 8.0 | 0.00 | 0.00 | 0.00 | 32 | 1007.7 |
| 20260508192502 | 17 | 229 | 1.6 | 8.0 | 0.00 | 0.00 | 0.00 | 36 | 1007.7 |
| 20260508192402 | 17 | 234 | 1.6 | 8.0 | 0.00 | 0.00 | 0.00 | 34 | 1007.7 |
| 20260508192305 | 17 | 238 | 1.6 | 8.0 | 0.00 | 0.00 | 0.00 | 33 | 1007.7 |
| 20260508192202 | 17 | 231 | 3.2 | 8.0 | 0.00 | 0.00 | 0.00 | 35 | 1007.7 |
| 20260508192102 | 17 | 231 | 3.2 | 8.0 | 0.00 | 0.00 | 0.00 | 34 | 1007.7 |
| 20260508192002 | 17 | 230 | 3.2 | 8.0 | 0.00 | 0.00 | 0.00 | 34 | 1007.7 |
| 20260508191902 | 17 | 228 | 3.2 | 8.0 | 0.00 | 0.00 | 0.00 | 35 | 1007.7 |
| 20260508191802 | 17 | 230 | 3.2 | 8.0 | 0.00 | 0.00 | 0.00 | 34 | 1007.8 |
| 20260508191723 | 17 | 229 | 3.2 | 8.0 | 0.00 | 0.00 | 0.00 | 32 | 1007.8 |
| 20260508191623 | 17 | 228 | 3.2 | 8.0 | 0.00 | 0.00 | 0.00 | 33 | 1007.8 |
| 20260508191502 | 17 | 225 | 3.2 | 8.0 | 0.00 | 0.00 | 0.00 | 33 | 1007.8 |
| 20260508191402 | 17 | 223 | 3.2 | 8.0 | 0.00 | 0.00 | 0.00 | 37 | 1007.8 |
| 20260508191302 | 17 | 223 | 1.6 | 8.0 | 0.00 | 0.00 | 0.00 | 37 | 1007.9 |
| 20260508191223 | 17 | 226 | 1.6 | 8.0 | 0.00 | 0.00 | 0.00 | 34 | 1007.9 |
| 20260508191123 | 17 | 220 | 3.2 | 12.9 | 0.00 | 0.00 | 0.00 | 35 | 1007.9 |
| 20260508191002 | 17 | 216 | 3.2 | 12.9 | 0.00 | 0.00 | 0.00 | 34 | 1007.9 |
| 20260508190902 | 17 | 213 | 3.2 | 12.9 | 0.00 | 0.00 | 0.00 | 35 | 1007.9 |
| 20260508190823 | 17 | 212 | 1.6 | 12.9 | 0.00 | 0.00 | 0.00 | 37 | 1007.9 |
| 20260508190702 | 17 | 213 | 1.6 | 12.9 | 0.00 | 0.00 | 0.00 | 35 | 1007.9 |
| 20260508190623 | 17 | 213 | 3.2 | 12.9 | 0.00 | 0.00 | 0.00 | 35 | 1007.9 |
| 20260508190502 | 17 | 212 | 3.2 | 12.9 | 0.00 | 0.00 | 0.00 | 36 | 1007.9 |
| 20260508190402 | 17 | 213 | 3.2 | 12.9 | 0.00 | 0.00 | 0.00 | 35 | 1007.9 |
| 20260508190302 | 17 | 214 | 3.2 | 12.9 | 0.00 | 0.00 | 0.00 | 33 | 1008.0 |
| 20260508190202 | 17 | 214 | 3.2 | 12.9 | 0.00 | 0.00 | 0.00 | 36 | 1008.0 |
| 20260508190002 | 17 | 224 | 1.6 | 9.7 | 0.00 | 0.00 | 0.00 | 38 | 1007.9 |
| 20260508185902 | 17 | 228 | 1.6 | 9.7 | 0.00 | 0.00 | 0.00 | 36 | 1007.9 |
| 20260508185802 | 17 | 225 | 1.6 | 9.7 | 0.00 | 0.00 | 0.00 | 35 | 1008.0 |
| 20260508185702 | 17 | 222 | 1.6 | 9.7 | 0.00 | 0.00 | 0.00 | 33 | 1008.1 |
| 20260508185602 | 17 | 216 | 1.6 | 9.7 | 0.00 | 0.00 | 0.00 | 35 | 1008.1 |
| 20260508185502 | 17 | 219 | 3.2 | 9.7 | 0.00 | 0.00 | 0.00 | 33 | 1008.2 |
| 20260508185402 | 17 | 220 | 3.2 | 9.7 | 0.00 | 0.00 | 0.00 | 36 | 1008.2 |
| 20260508185306 | 17 | 222 | 3.2 | 9.7 | 0.00 | 0.00 | 0.00 | 34 | 1008.2 |
| 20260508185202 | 17 | 224 | 3.2 | 9.7 | 0.00 | 0.00 | 0.00 | 33 | 1008.2 |
| 20260508185102 | 17 | 226 | 3.2 | 9.7 | 0.00 | 0.00 | 0.00 | 32 | 1008.2 |
| 20260508185002 | 18 | 224 | 3.2 | 9.7 | 0.00 | 0.00 | 0.00 | 33 | 1008.3 |
| 20260508184902 | 18 | 225 | 3.2 | 9.7 | 0.00 | 0.00 | 0.00 | 35 | 1008.3 |
| 20260508184802 | 18 | 229 | 3.2 | 9.7 | 0.00 | 0.00 | 0.00 | 33 | 1008.1 |
| 20260508184702 | 18 | 232 | 3.2 | 9.7 | 0.00 | 0.00 | 0.00 | 34 | 1008.2 |
| 20260508184602 | 18 | 243 | 1.6 | 6.4 | 0.00 | 0.00 | 0.00 | 32 | 1008.2 |
| 20260508184502 | 18 | 242 | 1.6 | 6.4 | 0.00 | 0.00 | 0.00 | 34 | 1008.2 |
| 20260508184402 | 18 | 242 | 1.6 | 6.4 | 0.00 | 0.00 | 0.00 | 33 | 1008.2 |
| 20260508184302 | 18 | 237 | 1.6 | 6.4 | 0.00 | 0.00 | 0.00 | 34 | 1008.2 |
| 20260508184202 | 18 | 229 | 3.2 | 6.4 | 0.00 | 0.00 | 0.00 | 34 | 1008.2 |
| 20260508184123 | 18 | 226 | 3.2 | 6.4 | 0.00 | 0.00 | 0.00 | 33 | 1008.2 |
| 20260508184002 | 18 | 223 | 1.6 | 6.4 | 0.00 | 0.00 | 0.00 | 35 | 1008.2 |
| 20260508183902 | 18 | 221 | 1.6 | 6.4 | 0.00 | 0.00 | 0.00 | 33 | 1008.2 |
| 20260508183803 | 18 | 219 | 1.6 | 6.4 | 0.00 | 0.00 | 0.00 | 34 | 1008.2 |
| 20260508183702 | 17 | 220 | 1.6 | 6.4 | 0.00 | 0.00 | 0.00 | 33 | 1008.3 |
| 20260508183602 | 17 | 216 | 3.2 | 9.7 | 0.00 | 0.00 | 0.00 | 35 | 1008.3 |
| 20260508183502 | 17 | 214 | 3.2 | 9.7 | 0.00 | 0.00 | 0.00 | 36 | 1008.3 |
| 20260508183402 | 17 | 214 | 3.2 | 9.7 | 0.00 | 0.00 | 0.00 | 34 | 1008.3 |
| 20260508183302 | 17 | 219 | 1.6 | 9.7 | 0.00 | 0.00 | 0.00 | 32 | 1008.3 |
| 20260508183202 | 17 | 224 | 1.6 | 9.7 | 0.00 | 0.00 | 0.00 | 34 | 1008.4 |
| 20260508183123 | 17 | 227 | 1.6 | 9.7 | 0.00 | 0.00 | 0.00 | 34 | 1008.4 |
| 20260508183002 | 17 | 236 | 1.6 | 9.7 | 0.00 | 0.00 | 0.00 | 32 | 1008.4 |
| 20260508182902 | 17 | 234 | 1.6 | 9.7 | 0.00 | 0.00 | 0.00 | 33 | 1008.4 |
| 20260508182802 | 17 | 234 | 1.6 | 9.7 | 0.00 | 0.00 | 0.00 | 32 | 1008.4 |
| 20260508182702 | 17 | 234 | 1.6 | 9.7 | 0.00 | 0.00 | 0.00 | 36 | 1008.5 |
| 20260508182602 | 17 | 239 | 1.6 | 8.0 | 0.00 | 0.00 | 0.00 | 33 | 1008.5 |
| 20260508182523 | 17 | 247 | 1.6 | 8.0 | 0.00 | 0.00 | 0.00 | 37 | 1008.5 |
| 20260508182402 | 17 | 251 | 1.6 | 8.0 | 0.00 | 0.00 | 0.00 | 34 | 1008.5 |
| 20260508182323 | 17 | 243 | 3.2 | 9.7 | 0.00 | 0.00 | 0.00 | 35 | 1008.5 |
| 20260508182202 | 17 | 236 | 3.2 | 12.9 | 0.00 | 0.00 | 0.00 | 36 | 1008.5 |
| 20260508182102 | 17 | 236 | 3.2 | 12.9 | 0.00 | 0.00 | 0.00 | 34 | 1008.5 |
| 20260508182002 | 17 | 236 | 3.2 | 12.9 | 0.00 | 0.00 | 0.00 | 34 | 1008.5 |
| 20260508181902 | 17 | 238 | 3.2 | 12.9 | 0.00 | 0.00 | 0.00 | 37 | 1008.5 |
| 20260508181802 | 17 | 240 | 3.2 | 12.9 | 0.00 | 0.00 | 0.00 | 33 | 1008.5 |
| 20260508181723 | 17 | 240 | 3.2 | 12.9 | 0.00 | 0.00 | 0.00 | 35 | 1008.5 |
| 20260508181602 | 17 | 241 | 3.2 | 12.9 | 0.00 | 0.00 | 0.00 | 33 | 1008.5 |
| 20260508181502 | 17 | 237 | 3.2 | 12.9 | 0.00 | 0.00 | 0.00 | 33 | 1008.5 |
| 20260508181402 | 17 | 234 | 3.2 | 12.9 | 0.00 | 0.00 | 0.00 | 35 | 1008.5 |
| 20260508181302 | 17 | 236 | 3.2 | 12.9 | 0.00 | 0.00 | 0.00 | 33 | 1008.5 |
| 20260508181203 | 17 | 240 | 3.2 | 8.0 | 0.00 | 0.00 | 0.00 | 34 | 1008.4 |
| 20260508181123 | 17 | 240 | 3.2 | 8.0 | 0.00 | 0.00 | 0.00 | 32 | 1008.4 |
| 20260508181002 | 17 | 235 | 3.2 | 8.0 | 0.00 | 0.00 | 0.00 | 31 | 1008.5 |
| 20260508180923 | 17 | 235 | 3.2 | 9.7 | 0.00 | 0.00 | 0.00 | 31 | 1008.5 |
| 20260508180802 | 17 | 232 | 3.2 | 9.7 | 0.00 | 0.00 | 0.00 | 33 | 1008.6 |
| 20260508180702 | 17 | 233 | 3.2 | 9.7 | 0.00 | 0.00 | 0.00 | 33 | 1008.6 |
| 20260508180602 | 17 | 233 | 3.2 | 9.7 | 0.00 | 0.00 | 0.00 | 36 | 1008.6 |
| 20260508180502 | 17 | 230 | 3.2 | 9.7 | 0.00 | 0.00 | 0.00 | 32 | 1008.6 |
| 20260508180402 | 17 | 232 | 3.2 | 9.7 | 0.00 | 0.00 | 0.00 | 33 | 1008.7 |
| 20260508180302 | 17 | 232 | 3.2 | 9.7 | 0.00 | 0.00 | 0.00 | 33 | 1008.6 |
| 20260508180202 | 17 | 231 | 3.2 | 9.7 | 0.00 | 0.00 | 0.00 | 33 | 1008.6 |
| 20260508180002 | 17 | 235 | 3.2 | 9.7 | 0.00 | 0.00 | 0.00 | 30 | 1008.6 |
| 20260508175902 | 17 | 250 | 3.2 | 8.0 | 0.00 | 0.00 | 0.00 | 32 | 1008.6 |
| 20260508175802 | 17 | 259 | 3.2 | 8.0 | 0.00 | 0.00 | 0.00 | 33 | 1008.6 |
| 20260508175702 | 17 | 256 | 3.2 | 8.0 | 0.00 | 0.00 | 0.00 | 32 | 1008.6 |
| 20260508175602 | 17 | 265 | 3.2 | 8.0 | 0.00 | 0.00 | 0.00 | 32 | 1008.7 |
| 20260508175502 | 17 | 274 | 3.2 | 8.0 | 0.00 | 0.00 | 0.00 | 34 | 1008.7 |
| 20260508175402 | 17 | 287 | 3.2 | 8.0 | 0.00 | 0.00 | 0.00 | 36 | 1008.7 |
| 20260508175305 | 17 | 297 | 1.6 | 8.0 | 0.00 | 0.00 | 0.00 | 37 | 1008.7 |
| 20260508175202 | 17 | 299 | 1.6 | 8.0 | 0.00 | 0.00 | 0.00 | 32 | 1008.7 |
| 20260508175102 | 17 | 308 | 1.6 | 8.0 | 0.00 | 0.00 | 0.00 | 31 | 1008.7 |
| 20260508175002 | 17 | 301 | 1.6 | 8.0 | 0.00 | 0.00 | 0.00 | 32 | 1008.9 |
| 20260508174923 | 17 | 289 | 1.6 | 8.0 | 0.00 | 0.00 | 0.00 | 32 | 1008.9 |
| 20260508174802 | 17 | 279 | 1.6 | 6.4 | 0.00 | 0.00 | 0.00 | 34 | 1008.9 |
| 20260508174702 | 17 | 272 | 1.6 | 6.4 | 0.00 | 0.00 | 0.00 | 32 | 1008.9 |
| 20260508174602 | 17 | 249 | 1.6 | 9.7 | 0.00 | 0.00 | 0.00 | 34 | 1008.9 |
| 20260508174502 | 17 | 251 | 1.6 | 9.7 | 0.00 | 0.00 | 0.00 | 35 | 1008.9 |
| 20260508174423 | 17 | 246 | 3.2 | 9.7 | 0.00 | 0.00 | 0.00 | 34 | 1008.9 |
| 20260508174323 | 16 | 248 | 3.2 | 9.7 | 0.00 | 0.00 | 0.00 | 34 | 1008.9 |
| 20260508174202 | 16 | 250 | 3.2 | 9.7 | 0.00 | 0.00 | 0.00 | 34 | 1008.9 |
| 20260508174102 | 16 | 250 | 1.6 | 9.7 | 0.00 | 0.00 | 0.00 | 34 | 1009.0 |
| 20260508174002 | 16 | 241 | 3.2 | 9.7 | 0.00 | 0.00 | 0.00 | 34 | 1009.1 |
| 20260508173902 | 16 | 229 | 3.2 | 9.7 | 0.00 | 0.00 | 0.00 | 33 | 1009.1 |
| 20260508173823 | 16 | 224 | 3.2 | 9.7 | 0.00 | 0.00 | 0.00 | 36 | 1009.2 |
| 20260508173702 | 16 | 223 | 3.2 | 9.7 | 0.00 | 0.00 | 0.00 | 33 | 1009.2 |
| 20260508173602 | 16 | 223 | 3.2 | 6.4 | 0.00 | 0.00 | 0.00 | 34 | 1009.1 |
| 20260508173502 | 16 | 220 | 3.2 | 6.4 | 0.00 | 0.00 | 0.00 | 35 | 1009.1 |
| 20260508173423 | 16 | 219 | 3.2 | 6.4 | 0.00 | 0.00 | 0.00 | 35 | 1009.1 |
| 20260508173302 | 16 | 209 | 3.2 | 6.4 | 0.00 | 0.00 | 0.00 | 33 | 1009.1 |
| 20260508173202 | 16 | 207 | 3.2 | 6.4 | 0.00 | 0.00 | 0.00 | 32 | 1009.2 |
| 20260508173102 | 16 | 209 | 3.2 | 8.0 | 0.00 | 0.00 | 0.00 | 34 | 1009.2 |
| 20260508173002 | 16 | 211 | 3.2 | 8.0 | 0.00 | 0.00 | 0.00 | 31 | 1009.2 |
| 20260508172902 | 16 | 211 | 3.2 | 8.0 | 0.00 | 0.00 | 0.00 | 32 | 1009.2 |
| 20260508172802 | 17 | 212 | 3.2 | 8.0 | 0.00 | 0.00 | 0.00 | 31 | 1009.3 |
| 20260508172702 | 17 | 214 | 3.2 | 8.0 | 0.00 | 0.00 | 0.00 | 31 | 1009.3 |
| 20260508172602 | 17 | 212 | 3.2 | 8.0 | 0.00 | 0.00 | 0.00 | 34 | 1009.3 |
| 20260508172502 | 17 | 213 | 3.2 | 8.0 | 0.00 | 0.00 | 0.00 | 31 | 1009.3 |
| 20260508172402 | 17 | 219 | 3.2 | 8.0 | 0.00 | 0.00 | 0.00 | 33 | 1009.3 |
| 20260508172306 | 17 | 225 | 1.6 | 8.0 | 0.00 | 0.00 | 0.00 | 34 | 1009.4 |
| 20260508172202 | 17 | 227 | 1.6 | 8.0 | 0.00 | 0.00 | 0.00 | 32 | 1009.5 |
| 20260508172102 | 17 | 228 | 1.6 | 6.4 | 0.00 | 0.00 | 0.00 | 33 | 1009.5 |
| 20260508172002 | 17 | 225 | 1.6 | 6.4 | 0.00 | 0.00 | 0.00 | 32 | 1009.5 |
| 20260508171923 | 17 | 224 | 1.6 | 6.4 | 0.00 | 0.00 | 0.00 | 32 | 1009.5 |
| 20260508171802 | 17 | 230 | 1.6 | 6.4 | 0.00 | 0.00 | 0.00 | 30 | 1009.4 |
| 20260508171702 | 17 | 230 | 1.6 | 6.4 | 0.00 | 0.00 | 0.00 | 31 | 1009.5 |
| 20260508171602 | 17 | 238 | 1.6 | 6.4 | 0.00 | 0.00 | 0.00 | 32 | 1009.5 |
| 20260508171502 | 17 | 244 | 1.6 | 6.4 | 0.00 | 0.00 | 0.00 | 31 | 1009.5 |
| 20260508171402 | 17 | 241 | 1.6 | 6.4 | 0.00 | 0.00 | 0.00 | 33 | 1009.6 |
| 20260508171302 | 17 | 237 | 1.6 | 6.4 | 0.00 | 0.00 | 0.00 | 32 | 1009.6 |
| 20260508171202 | 17 | 237 | 1.6 | 6.4 | 0.00 | 0.00 | 0.00 | 33 | 1009.6 |
| 20260508171102 | 17 | 236 | 1.6 | 6.4 | 0.00 | 0.00 | 0.00 | 33 | 1009.6 |
| 20260508171002 | 17 | 242 | 1.6 | 6.4 | 0.00 | 0.00 | 0.00 | 32 | 1009.6 |
| 20260508170902 | 17 | 241 | 1.6 | 6.4 | 0.00 | 0.00 | 0.00 | 32 | 1009.6 |
| 20260508170802 | 17 | 234 | 1.6 | 6.4 | 0.00 | 0.00 | 0.00 | 33 | 1009.6 |
| 20260508170702 | 17 | 239 | 3.2 | 6.4 | 0.00 | 0.00 | 0.00 | 31 | 1009.7 |
| 20260508170602 | 17 | 241 | 3.2 | 6.4 | 0.00 | 0.00 | 0.00 | 31 | 1009.7 |
| 20260508170502 | 17 | 249 | 3.2 | 6.4 | 0.00 | 0.00 | 0.00 | 35 | 1009.7 |
| 20260508170423 | 17 | 260 | 3.2 | 6.4 | 0.00 | 0.00 | 0.00 | 35 | 1009.7 |
| 20260508170302 | 16 | 266 | 3.2 | 6.4 | 0.00 | 0.00 | 0.00 | 34 | 1009.6 |
| 20260508170202 | 16 | 264 | 3.2 | 6.4 | 0.00 | 0.00 | 0.00 | 36 | 1009.7 |
| 20260508170002 | 16 | 247 | 3.2 | 8.0 | 0.00 | 0.00 | 0.00 | 35 | 1009.7 |
| 20260508165902 | 16 | 243 | 3.2 | 9.7 | 0.00 | 0.00 | 0.00 | 33 | 1009.8 |
| 20260508165823 | 16 | 244 | 3.2 | 9.7 | 0.00 | 0.00 | 0.00 | 33 | 1009.8 |
| 20260508165702 | 16 | 233 | 3.2 | 9.7 | 0.00 | 0.00 | 0.00 | 32 | 1009.8 |
| 20260508165602 | 17 | 226 | 3.2 | 9.7 | 0.00 | 0.00 | 0.00 | 34 | 1009.8 |
| 20260508165502 | 17 | 217 | 3.2 | 9.7 | 0.00 | 0.00 | 0.00 | 32 | 1009.8 |
| 20260508165402 | 17 | 214 | 3.2 | 9.7 | 0.00 | 0.00 | 0.00 | 35 | 1009.8 |
| 20260508165306 | 16 | 213 | 3.2 | 9.7 | 0.00 | 0.00 | 0.00 | 34 | 1009.8 |
| 20260508165223 | 16 | 214 | 3.2 | 9.7 | 0.00 | 0.00 | 0.00 | 34 | 1009.9 |
| 20260508165102 | 16 | 217 | 3.2 | 9.7 | 0.00 | 0.00 | 0.00 | 33 | 1009.9 |
| 20260508165002 | 16 | 219 | 1.6 | 9.7 | 0.00 | 0.00 | 0.00 | 36 | 1009.9 |
| 20260508164923 | 16 | 220 | 1.6 | 9.7 | 0.00 | 0.00 | 0.00 | 34 | 1009.9 |
| 20260508164802 | 17 | 218 | 1.6 | 9.7 | 0.00 | 0.00 | 0.00 | 32 | 1009.9 |
| 20260508164702 | 17 | 225 | 1.6 | 9.7 | 0.00 | 0.00 | 0.00 | 36 | 1009.9 |
| 20260508164602 | 17 | 224 | 1.6 | 6.4 | 0.00 | 0.00 | 0.00 | 35 | 1010.0 |
| 20260508164523 | 16 | 227 | 1.6 | 6.4 | 0.00 | 0.00 | 0.00 | 33 | 1010.0 |
| 20260508164402 | 16 | 227 | 1.6 | 9.7 | 0.00 | 0.00 | 0.00 | 37 | 1010.0 |
| 20260508164302 | 16 | 226 | 3.2 | 9.7 | 0.00 | 0.00 | 0.00 | 36 | 1010.0 |
| 20260508164202 | 16 | 236 | 3.2 | 11.3 | 0.00 | 0.00 | 0.00 | 40 | 1010.0 |
| 20260508164103 | 16 | 242 | 3.2 | 11.3 | 0.00 | 0.00 | 0.00 | 40 | 1010.0 |
| 20260508164002 | 16 | 256 | 3.2 | 11.3 | 0.00 | 0.00 | 0.00 | 36 | 1010.0 |
| 20260508163902 | 16 | 251 | 3.2 | 11.3 | 0.00 | 0.00 | 0.00 | 36 | 1010.0 |
| 20260508163802 | 16 | 251 | 3.2 | 11.3 | 0.00 | 0.00 | 0.00 | 37 | 1010.1 |
| 20260508163724 | 16 | 261 | 3.2 | 11.3 | 0.00 | 0.00 | 0.00 | 37 | 1010.1 |
| 20260508163602 | 16 | 284 | 3.2 | 11.3 | 0.00 | 0.00 | 0.00 | 38 | 1010.0 |
| 20260508163502 | 16 | 307 | 3.2 | 11.3 | 0.00 | 0.00 | 0.00 | 39 | 1010.0 |
| 20260508163402 | 16 | 349 | 3.2 | 11.3 | 0.00 | 0.00 | 0.00 | 39 | 1009.9 |
| 20260508163302 | 16 | 1 | 3.2 | 11.3 | 0.00 | 0.00 | 0.00 | 38 | 1010.0 |
| 20260508163202 | 15 | 358 | 3.2 | 6.4 | 0.00 | 0.00 | 0.00 | 35 | 1010.0 |
| 20260508163102 | 15 | 1 | 3.2 | 9.7 | 0.00 | 0.00 | 0.00 | 36 | 1010.1 |
| 20260508163023 | 15 | 360 | 3.2 | 9.7 | 0.00 | 0.00 | 0.00 | 35 | 1010.1 |
| 20260508162902 | 15 | 3 | 3.2 | 9.7 | 0.00 | 0.00 | 0.00 | 37 | 1010.0 |
| 20260508162802 | 15 | 4 | 3.2 | 9.7 | 0.00 | 0.00 | 0.00 | 36 | 1010.1 |
| 20260508162702 | 15 | 6 | 3.2 | 9.7 | 0.00 | 0.00 | 0.00 | 35 | 1010.1 |
| 20260508162602 | 15 | 7 | 3.2 | 9.7 | 0.00 | 0.00 | 0.00 | 36 | 1010.0 |
| 20260508162502 | 15 | 8 | 3.2 | 9.7 | 0.00 | 0.00 | 0.00 | 35 | 1010.1 |
| 20260508162402 | 15 | 360 | 3.2 | 9.7 | 0.00 | 0.00 | 0.00 | 37 | 1010.1 |
| 20260508162306 | 16 | 352 | 3.2 | 9.7 | 0.00 | 0.00 | 0.00 | 34 | 1010.1 |
| 20260508162202 | 16 | 352 | 1.6 | 9.7 | 0.00 | 0.00 | 0.00 | 34 | 1010.1 |
| 20260508162102 | 16 | 319 | 1.6 | 6.4 | 0.00 | 0.00 | 0.00 | 38 | 1010.1 |
| 20260508162002 | 16 | 273 | 1.6 | 6.4 | 0.00 | 0.00 | 0.00 | 34 | 1010.1 |
| 20260508161902 | 16 | 218 | 1.6 | 6.4 | 0.00 | 0.00 | 0.00 | 35 | 1010.1 |
| 20260508161802 | 16 | 218 | 1.6 | 6.4 | 0.00 | 0.00 | 0.00 | 36 | 1010.1 |
| 20260508161723 | 16 | 233 | 1.6 | 6.4 | 0.00 | 0.00 | 0.00 | 36 | 1010.1 |
| 20260508161602 | 16 | 236 | 1.6 | 6.4 | 0.00 | 0.00 | 0.00 | 37 | 1010.1 |
| 20260508161523 | 16 | 237 | 1.6 | 6.4 | 0.00 | 0.00 | 0.00 | 38 | 1010.1 |
| 20260508161402 | 16 | 234 | 1.6 | 6.4 | 0.00 | 0.00 | 0.00 | 36 | 1010.2 |
| 20260508161302 | 15 | 232 | 1.6 | 6.4 | 0.00 | 0.00 | 0.00 | 36 | 1010.2 |
| 20260508161202 | 15 | 229 | 1.6 | 6.4 | 0.00 | 0.00 | 0.00 | 35 | 1010.3 |
| 20260508161123 | 15 | 229 | 3.2 | 6.4 | 0.00 | 0.00 | 0.00 | 35 | 1010.3 |
| 20260508161002 | 15 | 235 | 3.2 | 6.4 | 0.00 | 0.00 | 0.00 | 36 | 1010.3 |
| 20260508160902 | 15 | 234 | 3.2 | 6.4 | 0.00 | 0.00 | 0.00 | 36 | 1010.3 |
| 20260508160802 | 15 | 227 | 3.2 | 6.4 | 0.00 | 0.00 | 0.00 | 38 | 1010.3 |
| 20260508160702 | 15 | 216 | 1.6 | 6.4 | 0.00 | 0.00 | 0.00 | 38 | 1010.3 |
| 20260508160602 | 15 | 213 | 1.6 | 6.4 | 0.00 | 0.00 | 0.00 | 40 | 1010.3 |
| 20260508160502 | 15 | 211 | 1.6 | 6.4 | 0.00 | 0.00 | 0.00 | 42 | 1010.4 |
| 20260508160402 | 15 | 206 | 1.6 | 6.4 | 0.00 | 0.00 | 0.00 | 41 | 1010.4 |
| 20260508160302 | 15 | 196 | 1.6 | 6.4 | 0.00 | 0.00 | 0.00 | 42 | 1010.5 |
| 20260508160223 | 15 | 199 | 1.6 | 6.4 | 0.00 | 0.00 | 0.00 | 46 | 1010.5 |
| 20260508160002 | 15 | 199 | 1.6 | 6.4 | 0.00 | 0.00 | 0.00 | 41 | 1010.5 |
| 20260508155902 | 15 | 205 | 1.6 | 6.4 | 0.00 | 0.00 | 0.00 | 43 | 1010.5 |
| 20260508155823 | 15 | 207 | 1.6 | 6.4 | 0.00 | 0.00 | 0.00 | 42 | 1010.5 |
| 20260508155702 | 15 | 204 | 1.6 | 8.0 | 0.00 | 0.00 | 0.00 | 42 | 1010.5 |
| 20260508155623 | 15 | 208 | 1.6 | 8.0 | 0.00 | 0.00 | 0.00 | 43 | 1010.5 |
| 20260508155502 | 15 | 207 | 3.2 | 8.0 | 0.00 | 0.00 | 0.00 | 40 | 1010.5 |
| 20260508155402 | 15 | 207 | 3.2 | 8.0 | 0.00 | 0.00 | 0.00 | 43 | 1010.5 |
| 20260508155305 | 15 | 212 | 1.6 | 8.0 | 0.00 | 0.00 | 0.00 | 39 | 1010.5 |
| 20260508155202 | 15 | 220 | 1.6 | 8.0 | 0.00 | 0.00 | 0.00 | 39 | 1010.6 |
| 20260508155102 | 15 | 224 | 1.6 | 8.0 | 0.00 | 0.00 | 0.00 | 41 | 1010.6 |
| 20260508155002 | 15 | 222 | 1.6 | 8.0 | 0.00 | 0.00 | 0.00 | 41 | 1010.6 |
| 20260508154923 | 15 | 224 | 1.6 | 8.0 | 0.00 | 0.00 | 0.00 | 44 | 1010.6 |
| 20260508154802 | 15 | 230 | 1.6 | 6.4 | 0.00 | 0.00 | 0.00 | 44 | 1010.5 |
| 20260508154702 | 15 | 231 | 1.6 | 6.4 | 0.00 | 0.00 | 0.00 | 44 | 1010.5 |
| 20260508154623 | 15 | 229 | 1.6 | 6.4 | 0.00 | 0.00 | 0.00 | 44 | 1010.5 |
| 20260508154502 | 15 | 235 | 1.6 | 6.4 | 0.00 | 0.00 | 0.00 | 44 | 1010.5 |
| 20260508154402 | 15 | 239 | 1.6 | 6.4 | 0.00 | 0.00 | 0.00 | 43 | 1010.5 |
| 20260508154302 | 15 | 238 | 1.6 | 6.4 | 0.00 | 0.00 | 0.00 | 43 | 1010.5 |
| 20260508154202 | 15 | 227 | 1.6 | 6.4 | 0.00 | 0.00 | 0.00 | 43 | 1010.5 |
| 20260508154102 | 15 | 221 | 1.6 | 6.4 | 0.00 | 0.00 | 0.00 | 41 | 1010.5 |
| 20260508154023 | 15 | 227 | 1.6 | 6.4 | 0.00 | 0.00 | 0.00 | 41 | 1010.5 |
| 20260508153923 | 15 | 227 | 1.6 | 6.4 | 0.00 | 0.00 | 0.00 | 44 | 1010.6 |
| 20260508153802 | 15 | 225 | 3.2 | 9.7 | 0.00 | 0.00 | 0.00 | 46 | 1010.6 |
| 20260508153702 | 15 | 222 | 3.2 | 9.7 | 0.00 | 0.00 | 0.00 | 47 | 1010.6 |
| 20260508153623 | 15 | 222 | 3.2 | 9.7 | 0.00 | 0.00 | 0.00 | 47 | 1010.6 |
| 20260508153502 | 14 | 225 | 3.2 | 9.7 | 0.00 | 0.00 | 0.00 | 45 | 1010.5 |
| 20260508153402 | 14 | 225 | 3.2 | 9.7 | 0.00 | 0.00 | 0.00 | 43 | 1010.6 |
| 20260508153302 | 14 | 228 | 3.2 | 9.7 | 0.00 | 0.00 | 0.00 | 44 | 1010.6 |
| 20260508153223 | 14 | 225 | 1.6 | 9.7 | 0.00 | 0.00 | 0.00 | 44 | 1010.6 |
| 20260508153102 | 14 | 235 | 3.2 | 9.7 | 0.00 | 0.00 | 0.00 | 42 | 1010.7 |
| 20260508153002 | 15 | 262 | 3.2 | 9.7 | 0.00 | 0.00 | 0.00 | 41 | 1010.7 |
| 20260508152902 | 15 | 309 | 1.6 | 9.7 | 0.00 | 0.00 | 0.00 | 42 | 1010.7 |
| 20260508152802 | 15 | 348 | 1.6 | 6.4 | 0.00 | 0.00 | 0.00 | 43 | 1010.7 |
| 20260508152702 | 15 | 358 | 1.6 | 6.4 | 0.00 | 0.00 | 0.00 | 43 | 1010.7 |
| 20260508152623 | 15 | 354 | 1.6 | 6.4 | 0.00 | 0.00 | 0.00 | 41 | 1010.7 |
| 20260508152502 | 14 | 356 | 1.6 | 6.4 | 0.00 | 0.00 | 0.00 | 44 | 1010.7 |
| 20260508152402 | 14 | 356 | 1.6 | 6.4 | 0.00 | 0.00 | 0.00 | 43 | 1010.7 |
| 20260508152305 | 14 | 350 | 1.6 | 6.4 | 0.00 | 0.00 | 0.00 | 43 | 1010.7 |
| 20260508152202 | 14 | 349 | 1.6 | 6.4 | 0.00 | 0.00 | 0.00 | 44 | 1010.7 |
| 20260508152123 | 14 | 350 | 1.6 | 6.4 | 0.00 | 0.00 | 0.00 | 42 | 1010.7 |
| 20260508152023 | 14 | 344 | 1.6 | 6.4 | 0.00 | 0.00 | 0.00 | 42 | 1010.7 |
| 20260508151902 | 14 | 339 | 1.6 | 4.8 | 0.00 | 0.00 | 0.00 | 45 | 1010.7 |
| 20260508151802 | 14 | 333 | 1.6 | 4.8 | 0.00 | 0.00 | 0.00 | 44 | 1010.8 |
| 20260508151726 | 14 | 331 | 1.6 | 4.8 | 0.00 | 0.00 | 0.00 | 45 | 1010.8 |
| 20260508151602 | 14 | 323 | 1.6 | 4.8 | 0.00 | 0.00 | 0.00 | 45 | 1010.8 |
| 20260508151502 | 14 | 309 | 1.6 | 4.8 | 0.00 | 0.00 | 0.00 | 44 | 1010.8 |
| 20260508151402 | 14 | 304 | 1.6 | 4.8 | 0.00 | 0.00 | 0.00 | 43 | 1010.8 |
| 20260508151323 | 14 | 291 | 1.6 | 4.8 | 0.00 | 0.00 | 0.00 | 43 | 1010.8 |
| 20260508151202 | 14 | 256 | 1.6 | 6.4 | 0.00 | 0.00 | 0.00 | 43 | 1010.8 |
| 20260508151102 | 14 | 246 | 3.2 | 6.4 | 0.00 | 0.00 | 0.00 | 44 | 1010.8 |
| 20260508151002 | 14 | 236 | 3.2 | 8.0 | 0.00 | 0.00 | 0.00 | 42 | 1010.8 |
| 20260508150902 | 14 | 224 | 3.2 | 8.0 | 0.00 | 0.00 | 0.00 | 44 | 1010.9 |
| 20260508150802 | 14 | 218 | 3.2 | 8.0 | 0.00 | 0.00 | 0.00 | 45 | 1010.9 |
| 20260508150723 | 14 | 218 | 3.2 | 8.0 | 0.00 | 0.00 | 0.00 | 45 | 1010.9 |
| 20260508150623 | 14 | 217 | 3.2 | 8.0 | 0.00 | 0.00 | 0.00 | 48 | 1010.8 |
| 20260508150502 | 14 | 216 | 3.2 | 8.0 | 0.00 | 0.00 | 0.00 | 48 | 1010.9 |
| 20260508150402 | 13 | 212 | 3.2 | 8.0 | 0.00 | 0.00 | 0.00 | 49 | 1010.9 |
| 20260508150302 | 13 | 209 | 1.6 | 8.0 | 0.00 | 0.00 | 0.00 | 45 | 1010.8 |
| 20260508150202 | 14 | 206 | 1.6 | 8.0 | 0.00 | 0.00 | 0.00 | 45 | 1010.8 |
| 20260508150002 | 14 | 197 | 1.6 | 6.4 | 0.00 | 0.00 | 0.00 | 47 | 1010.8 |
| 20260508145923 | 14 | 205 | 1.6 | 6.4 | 0.00 | 0.00 | 0.00 | 45 | 1010.8 |
| 20260508145802 | 13 | 202 | 1.6 | 6.4 | 0.00 | 0.00 | 0.00 | 48 | 1010.8 |
| 20260508145723 | 13 | 198 | 1.6 | 6.4 | 0.00 | 0.00 | 0.00 | 48 | 1010.8 |
| 20260508145602 | 13 | 194 | 1.6 | 6.4 | 0.00 | 0.00 | 0.00 | 51 | 1010.8 |
| 20260508145523 | 13 | 189 | 1.6 | 6.4 | 0.00 | 0.00 | 0.00 | 51 | 1010.8 |
| 20260508145402 | 13 | 195 | 1.6 | 6.4 | 0.00 | 0.00 | 0.00 | 49 | 1010.9 |
| 20260508145306 | 13 | 196 | 1.6 | 6.4 | 0.00 | 0.00 | 0.00 | 48 | 1010.9 |
| 20260508145202 | 13 | 201 | 1.6 | 6.4 | 0.00 | 0.00 | 0.00 | 49 | 1010.9 |
| 20260508145102 | 13 | 203 | 1.6 | 8.0 | 0.00 | 0.00 | 0.00 | 50 | 1011.0 |
| 20260508145002 | 13 | 202 | 1.6 | 8.0 | 0.00 | 0.00 | 0.00 | 46 | 1010.9 |
| 20260508144902 | 13 | 201 | 1.6 | 8.0 | 0.00 | 0.00 | 0.00 | 49 | 1010.9 |
| 20260508144802 | 13 | 204 | 1.6 | 8.0 | 0.00 | 0.00 | 0.00 | 47 | 1010.9 |
| 20260508144702 | 13 | 208 | 1.6 | 8.0 | 0.00 | 0.00 | 0.00 | 48 | 1010.9 |
| 20260508144602 | 13 | 210 | 1.6 | 8.0 | 0.00 | 0.00 | 0.00 | 49 | 1010.9 |
| 20260508144523 | 13 | 213 | 1.6 | 8.0 | 0.00 | 0.00 | 0.00 | 49 | 1010.9 |
| 20260508144402 | 13 | 215 | 1.6 | 8.0 | 0.00 | 0.00 | 0.00 | 50 | 1010.9 |
| 20260508144302 | 13 | 221 | 1.6 | 8.0 | 0.00 | 0.00 | 0.00 | 50 | 1011.0 |
| 20260508144202 | 13 | 222 | 1.6 | 8.0 | 0.00 | 0.00 | 0.00 | 50 | 1010.9 |
| 20260508144102 | 13 | 227 | 1.6 | 8.0 | 0.00 | 0.00 | 0.00 | 49 | 1010.9 |
| 20260508144002 | 13 | 232 | 1.6 | 4.8 | 0.00 | 0.00 | 0.00 | 52 | 1010.9 |
| 20260508143902 | 13 | 231 | 1.6 | 4.8 | 0.00 | 0.00 | 0.00 | 54 | 1010.9 |
| 20260508143823 | 13 | 231 | 1.6 | 4.8 | 0.00 | 0.00 | 0.00 | 54 | 1011.0 |
| 20260508143702 | 13 | 233 | 1.6 | 4.8 | 0.00 | 0.00 | 0.00 | 56 | 1011.0 |
| 20260508143602 | 13 | 237 | 1.6 | 4.8 | 0.00 | 0.00 | 0.00 | 56 | 1011.0 |
| 20260508143502 | 13 | 244 | 1.6 | 4.8 | 0.00 | 0.00 | 0.00 | 54 | 1011.0 |
| 20260508143423 | 13 | 244 | 1.6 | 4.8 | 0.00 | 0.00 | 0.00 | 53 | 1011.0 |
| 20260508143302 | 13 | 235 | 1.6 | 4.8 | 0.00 | 0.00 | 0.00 | 52 | 1011.0 |
| 20260508143202 | 13 | 229 | 1.6 | 4.8 | 0.00 | 0.00 | 0.00 | 50 | 1011.0 |
| 20260508143102 | 13 | 226 | 1.6 | 4.8 | 0.00 | 0.00 | 0.00 | 51 | 1011.0 |
| 20260508143002 | 13 | 231 | 1.6 | 3.2 | 0.00 | 0.00 | 0.00 | 52 | 1011.1 |
| 20260508142902 | 13 | 226 | 1.6 | 4.8 | 0.00 | 0.00 | 0.00 | 50 | 1011.1 |
| 20260508142802 | 13 | 225 | 1.6 | 4.8 | 0.00 | 0.00 | 0.00 | 51 | 1011.1 |
| 20260508142702 | 13 | 224 | 1.6 | 4.8 | 0.00 | 0.00 | 0.00 | 52 | 1011.1 |
| 20260508142602 | 13 | 223 | 1.6 | 6.4 | 0.00 | 0.00 | 0.00 | 52 | 1011.1 |
| 20260508142502 | 13 | 216 | 1.6 | 6.4 | 0.00 | 0.00 | 0.00 | 55 | 1011.1 |
| 20260508142423 | 13 | 215 | 1.6 | 6.4 | 0.00 | 0.00 | 0.00 | 53 | 1011.1 |
| 20260508142306 | 12 | 215 | 1.6 | 6.4 | 0.00 | 0.00 | 0.00 | 51 | 1011.2 |
| 20260508142202 | 12 | 218 | 1.6 | 6.4 | 0.00 | 0.00 | 0.00 | 52 | 1011.1 |
| 20260508142102 | 12 | 217 | 1.6 | 6.4 | 0.00 | 0.00 | 0.00 | 52 | 1011.1 |
| 20260508142023 | 12 | 216 | 1.6 | 6.4 | 0.00 | 0.00 | 0.00 | 52 | 1011.2 |
| 20260508141923 | 12 | 216 | 1.6 | 6.4 | 0.00 | 0.00 | 0.00 | 55 | 1011.2 |
| 20260508141823 | 12 | 216 | 1.6 | 6.4 | 0.00 | 0.00 | 0.00 | 56 | 1011.2 |
| 20260508141702 | 12 | 216 | 1.6 | 6.4 | 0.00 | 0.00 | 0.00 | 53 | 1011.2 |
| 20260508141602 | 12 | 219 | 1.6 | 4.8 | 0.00 | 0.00 | 0.00 | 54 | 1011.2 |
| 20260508141502 | 12 | 225 | 1.6 | 4.8 | 0.00 | 0.00 | 0.00 | 52 | 1011.2 |
| 20260508141402 | 12 | 227 | 1.6 | 4.8 | 0.00 | 0.00 | 0.00 | 54 | 1011.2 |
| 20260508141302 | 12 | 227 | 1.6 | 4.8 | 0.00 | 0.00 | 0.00 | 53 | 1011.2 |
| 20260508141202 | 12 | 226 | 1.6 | 4.8 | 0.00 | 0.00 | 0.00 | 53 | 1011.2 |
| 20260508141102 | 12 | 225 | 1.6 | 4.8 | 0.00 | 0.00 | 0.00 | 53 | 1011.2 |
| 20260508141005 | 12 | 235 | 0.0 | 3.2 | 0.00 | 0.00 | 0.00 | 56 | 1011.2 |
| 20260508140902 | 12 | 236 | 1.6 | 3.2 | 0.00 | 0.00 | 0.00 | 55 | 1011.2 |
| 20260508140802 | 12 | 237 | 1.6 | 3.2 | 0.00 | 0.00 | 0.00 | 55 | 1011.2 |
| 20260508140702 | 12 | 235 | 1.6 | 3.2 | 0.00 | 0.00 | 0.00 | 55 | 1011.2 |
| 20260508140602 | 12 | 224 | 1.6 | 3.2 | 0.00 | 0.00 | 0.00 | 56 | 1011.2 |
| 20260508140502 | 12 | 224 | 1.6 | 4.8 | 0.00 | 0.00 | 0.00 | 57 | 1011.2 |
| 20260508140423 | 12 | 223 | 1.6 | 4.8 | 0.00 | 0.00 | 0.00 | 55 | 1011.2 |
| 20260508140302 | 12 | 225 | 1.6 | 4.8 | 0.00 | 0.00 | 0.00 | 54 | 1011.2 |
| 20260508140202 | 12 | 226 | 1.6 | 4.8 | 0.00 | 0.00 | 0.00 | 55 | 1011.2 |
| 20260508140123 | 12 | 222 | 1.6 | 4.8 | 0.00 | 0.00 | 0.00 | 56 | 1011.2 |
| 20260508140002 | 12 | 221 | 1.6 | 4.8 | 0.00 | 0.00 | 0.00 | 55 | 1011.2 |
| 20260508135902 | 11 | 221 | 1.6 | 4.8 | 0.00 | 0.00 | 0.00 | 57 | 1011.2 |
| 20260508135802 | 11 | 222 | 1.6 | 4.8 | 0.00 | 0.00 | 0.00 | 59 | 1011.2 |
| 20260508135723 | 11 | 222 | 1.6 | 4.8 | 0.00 | 0.00 | 0.00 | 59 | 1011.2 |
| 20260508135602 | 11 | 223 | 1.6 | 4.8 | 0.00 | 0.00 | 0.00 | 56 | 1011.3 |
| 20260508135502 | 11 | 220 | 1.6 | 4.8 | 0.00 | 0.00 | 0.00 | 58 | 1011.3 |
| 20260508135402 | 11 | 217 | 1.6 | 4.8 | 0.00 | 0.00 | 0.00 | 55 | 1011.3 |
| 20260508135305 | 11 | 216 | 1.6 | 4.8 | 0.00 | 0.00 | 0.00 | 56 | 1011.3 |
| 20260508135202 | 11 | 215 | 1.6 | 4.8 | 0.00 | 0.00 | 0.00 | 58 | 1011.3 |
| 20260508135102 | 11 | 222 | 0.0 | 3.2 | 0.00 | 0.00 | 0.00 | 59 | 1011.4 |
| 20260508135002 | 11 | 221 | 0.0 | 3.2 | 0.00 | 0.00 | 0.00 | 57 | 1011.4 |
| 20260508134902 | 11 | 218 | 0.0 | 3.2 | 0.00 | 0.00 | 0.00 | 59 | 1011.3 |
| 20260508134802 | 11 | 212 | 0.0 | 3.2 | 0.00 | 0.00 | 0.00 | 60 | 1011.4 |
| 20260508134702 | 11 | 212 | 1.6 | 3.2 | 0.00 | 0.00 | 0.00 | 64 | 1011.4 |
| 20260508134602 | 11 | 210 | 1.6 | 4.8 | 0.00 | 0.00 | 0.00 | 63 | 1011.4 |
| 20260508134502 | 11 | 208 | 1.6 | 4.8 | 0.00 | 0.00 | 0.00 | 63 | 1011.4 |
| 20260508134402 | 11 | 207 | 1.6 | 4.8 | 0.00 | 0.00 | 0.00 | 67 | 1011.4 |
| 20260508134302 | 11 | 208 | 1.6 | 4.8 | 0.00 | 0.00 | 0.00 | 67 | 1011.4 |
| 20260508134223 | 11 | 208 | 1.6 | 4.8 | 0.00 | 0.00 | 0.00 | 65 | 1011.4 |
| 20260508134102 | 11 | 208 | 1.6 | 4.8 | 0.00 | 0.00 | 0.00 | 67 | 1011.5 |
| 20260508134002 | 11 | 208 | 1.6 | 4.8 | 0.00 | 0.00 | 0.00 | 68 | 1011.5 |
| 20260508133902 | 11 | 208 | 1.6 | 4.8 | 0.00 | 0.00 | 0.00 | 67 | 1011.5 |
| 20260508133802 | 11 | 209 | 1.6 | 4.8 | 0.00 | 0.00 | 0.00 | 66 | 1011.5 |
| 20260508133702 | 11 | 207 | 1.6 | 4.8 | 0.00 | 0.00 | 0.00 | 67 | 1011.5 |
| 20260508133623 | 11 | 206 | 1.6 | 3.2 | 0.00 | 0.00 | 0.00 | 68 | 1011.6 |
| 20260508133502 | 11 | 205 | 1.6 | 3.2 | 0.00 | 0.00 | 0.00 | 69 | 1011.6 |
| 20260508133423 | 11 | 205 | 1.6 | 3.2 | 0.00 | 0.00 | 0.00 | 69 | 1011.6 |
| 20260508133302 | 11 | 201 | 1.6 | 3.2 | 0.00 | 0.00 | 0.00 | 70 | 1011.5 |
| 20260508133202 | 11 | 199 | 1.6 | 3.2 | 0.00 | 0.00 | 0.00 | 71 | 1011.5 |
| 20260508133102 | 10 | 198 | 1.6 | 3.2 | 0.00 | 0.00 | 0.00 | 71 | 1011.5 |
| 20260508133002 | 10 | 198 | 1.6 | 3.2 | 0.00 | 0.00 | 0.00 | 70 | 1011.5 |
| 20260508132902 | 10 | 202 | 1.6 | 3.2 | 0.00 | 0.00 | 0.00 | 71 | 1011.5 |
| 20260508132802 | 10 | 204 | 1.6 | 3.2 | 0.00 | 0.00 | 0.00 | 71 | 1011.5 |
| 20260508132702 | 10 | 205 | 1.6 | 3.2 | 0.00 | 0.00 | 0.00 | 72 | 1011.5 |
| 20260508132602 | 10 | 205 | 1.6 | 3.2 | 0.00 | 0.00 | 0.00 | 72 | 1011.5 |
| 20260508132502 | 10 | 203 | 1.6 | 3.2 | 0.00 | 0.00 | 0.00 | 73 | 1011.5 |
| 20260508132402 | 10 | 199 | 1.6 | 3.2 | 0.00 | 0.00 | 0.00 | 74 | 1011.5 |
| 20260508132306 | 10 | 197 | 1.6 | 4.8 | 0.00 | 0.00 | 0.00 | 74 | 1011.5 |
| 20260508132223 | 10 | 193 | 1.6 | 4.8 | 0.00 | 0.00 | 0.00 | 74 | 1011.5 |
| 20260508132102 | 10 | 192 | 1.6 | 4.8 | 0.00 | 0.00 | 0.00 | 73 | 1011.4 |
| 20260508132002 | 10 | 190 | 1.6 | 4.8 | 0.00 | 0.00 | 0.00 | 73 | 1011.4 |
| 20260508131902 | 10 | 190 | 1.6 | 4.8 | 0.00 | 0.00 | 0.00 | 74 | 1011.4 |
| 20260508131802 | 10 | 194 | 1.6 | 4.8 | 0.00 | 0.00 | 0.00 | 75 | 1011.4 |
| 20260508131702 | 9 | 199 | 1.6 | 4.8 | 0.00 | 0.00 | 0.00 | 74 | 1011.5 |
| 20260508131623 | 9 | 201 | 1.6 | 4.8 | 0.00 | 0.00 | 0.00 | 74 | 1011.5 |
| 20260508131502 | 9 | 207 | 1.6 | 4.8 | 0.00 | 0.00 | 0.00 | 75 | 1011.5 |
| 20260508131402 | 9 | 213 | 1.6 | 4.8 | 0.00 | 0.00 | 0.00 | 77 | 1011.5 |
| 20260508131302 | 9 | 219 | 1.6 | 3.2 | 0.00 | 0.00 | 0.00 | 77 | 1011.5 |
| 20260508131202 | 9 | 224 | 0.0 | 3.2 | 0.00 | 0.00 | 0.00 | 78 | 1011.5 |
| 20260508131123 | 9 | 224 | 0.0 | 3.2 | 0.00 | 0.00 | 0.00 | 78 | 1011.5 |
| 20260508131002 | 8 | 223 | 0.0 | 3.2 | 0.00 | 0.00 | 0.00 | 78 | 1011.4 |
| 20260508130902 | 8 | 218 | 0.0 | 3.2 | 0.00 | 0.00 | 0.00 | 77 | 1011.5 |
| 20260508130802 | 8 | 214 | 0.0 | 3.2 | 0.00 | 0.00 | 0.00 | 77 | 1011.5 |
| 20260508130702 | 8 | 211 | 0.0 | 3.2 | 0.00 | 0.00 | 0.00 | 78 | 1011.5 |
| 20260508130602 | 8 | 173 | 0.0 | 1.6 | 0.00 | 0.00 | 0.00 | 78 | 1011.5 |
| 20260508130502 | 8 | 115 | 0.0 | 3.2 | 0.00 | 0.00 | 0.00 | 78 | 1011.5 |
| 20260508130402 | 8 | 114 | 0.0 | 3.2 | 0.00 | 0.00 | 0.00 | 78 | 1011.5 |
| 20260508130302 | 8 | 113 | 0.0 | 3.2 | 0.00 | 0.00 | 0.00 | 78 | 1011.5 |
| 20260508130202 | 8 | 113 | 0.0 | 3.2 | 0.00 | 0.00 | 0.00 | 78 | 1011.5 |
| 20260508130023 | 8 | 103 | 0.0 | 3.2 | 0.00 | 0.00 | 0.00 | 79 | 1011.5 |
| 20260508125923 | 8 | 91 | 0.0 | 3.2 | 0.00 | 0.00 | 0.00 | 79 | 1011.5 |
| 20260508125802 | 8 | 72 | 0.0 | 3.2 | 0.00 | 0.00 | 0.00 | 80 | 1011.5 |
| 20260508125702 | 8 | 74 | 0.0 | 3.2 | 0.00 | 0.00 | 0.00 | 80 | 1011.5 |
| 20260508125623 | 8 | 90 | 0.0 | 3.2 | 0.00 | 0.00 | 0.00 | 80 | 1011.5 |
| 20260508125502 | 7 | 139 | 0.0 | 1.6 | 0.00 | 0.00 | 0.00 | 81 | 1011.5 |
| 20260508125402 | 7 | 142 | 0.0 | 1.6 | 0.00 | 0.00 | 0.00 | 81 | 1011.5 |
| 20260508125323 | 7 | 146 | 0.0 | 1.6 | 0.00 | 0.00 | 0.00 | 81 | 1011.5 |
| 20260508125202 | 7 | 173 | 0.0 | 1.6 | 0.00 | 0.00 | 0.00 | 81 | 1011.5 |
| 20260508125102 | 7 | 180 | 0.0 | 1.6 | 0.00 | 0.00 | 0.00 | 82 | 1011.5 |
| 20260508125002 | 7 | 180 | 0.0 | 1.6 | 0.00 | 0.00 | 0.00 | 82 | 1011.5 |
| 20260508124902 | 7 | 176 | 0.0 | 1.6 | 0.00 | 0.00 | 0.00 | 82 | 1011.5 |
| 20260508124802 | 7 | 185 | 0.0 | 1.6 | 0.00 | 0.00 | 0.00 | 83 | 1011.5 |
| 20260508124702 | 7 | 191 | 0.0 | 1.6 | 0.00 | 0.00 | 0.00 | 83 | 1011.5 |
| 20260508124602 | 7 | 181 | 0.0 | 1.6 | 0.00 | 0.00 | 0.00 | 83 | 1011.4 |
| 20260508124502 | 7 | 181 | 0.0 | 1.6 | 0.00 | 0.00 | 0.00 | 83 | 1011.4 |
| 20260508124402 | 7 | 181 | 0.0 | 1.6 | 0.00 | 0.00 | 0.00 | 83 | 1011.5 |
| 20260508124323 | 7 | 181 | 0.0 | 1.6 | 0.00 | 0.00 | 0.00 | 83 | 1011.5 |
| 20260508124202 | 7 | 75 | 0.0 | 1.6 | 0.00 | 0.00 | 0.00 | 84 | 1011.4 |
| 20260508124123 | 7 | 75 | 0.0 | 1.6 | 0.00 | 0.00 | 0.00 | 84 | 1011.4 |
| 20260508124002 | 7 | 75 | 0.0 | 1.6 | 0.00 | 0.00 | 0.00 | 85 | 1011.4 |
| 20260508123923 | 7 | 75 | 0.0 | 1.6 | 0.00 | 0.00 | 0.00 | 86 | 1011.4 |
| 20260508123802 | 7 | 75 | 0.0 | 1.6 | 0.00 | 0.00 | 0.00 | 87 | 1011.4 |
| 20260508123702 | 7 | 75 | 0.0 | 1.6 | 0.00 | 0.00 | 0.00 | 87 | 1011.4 |
| 20260508123623 | 7 | 75 | 0.0 | 1.6 | 0.00 | 0.00 | 0.00 | 87 | 1011.3 |
| 20260508123523 | 6 | 74 | 0.0 | 1.6 | 0.00 | 0.00 | 0.00 | 87 | 1011.3 |
| 20260508123402 | 6 | 76 | 0.0 | 1.6 | 0.00 | 0.00 | 0.00 | 87 | 1011.3 |
| 20260508123302 | 6 | 76 | 0.0 | 1.6 | 0.00 | 0.00 | 0.00 | 87 | 1011.3 |
| 20260508123202 | 6 | 76 | 0.0 | 1.6 | 0.00 | 0.00 | 0.00 | 87 | 1011.3 |
| 20260508123102 | 6 | 76 | 0.0 | 1.6 | 0.00 | 0.00 | 0.00 | 88 | 1011.3 |
| 20260508123002 | 6 | 92 | 0.0 | 1.6 | 0.00 | 0.00 | 0.00 | 89 | 1011.3 |
| 20260508122902 | 6 | 106 | 0.0 | 1.6 | 0.00 | 0.00 | 0.00 | 89 | 1011.3 |
| 20260508122823 | 6 | 106 | 0.0 | 1.6 | 0.00 | 0.00 | 0.00 | 90 | 1011.3 |
| 20260508122702 | 6 | 108 | 0.0 | 1.6 | 0.00 | 0.00 | 0.00 | 90 | 1011.2 |
| 20260508122602 | 6 | 115 | 0.0 | 1.6 | 0.00 | 0.00 | 0.00 | 91 | 1011.2 |
| 20260508122502 | 6 | 160 | 0.0 | 1.6 | 0.00 | 0.00 | 0.00 | 92 | 1011.2 |
| 20260508122402 | 6 | 204 | 0.0 | 1.6 | 0.00 | 0.00 | 0.00 | 93 | 1011.2 |
| 20260508122306 | 5 | 204 | 0.0 | 1.6 | 0.00 | 0.00 | 0.00 | 93 | 1011.2 |
| 20260508122202 | 5 | 204 | 0.0 | 1.6 | 0.00 | 0.00 | 0.00 | 93 | 1011.2 |
| 20260508122102 | 5 | 204 | 0.0 | 1.6 | 0.00 | 0.00 | 0.00 | 93 | 1011.2 |
| 20260508122002 | 5 | 203 | 0.0 | 1.6 | 0.00 | 0.00 | 0.00 | 94 | 1011.2 |
| 20260508121902 | 5 | 0 | 0.0 | 0.0 | 0.00 | 0.00 | 0.00 | 94 | 1011.2 |
| 20260508121823 | 5 | 0 | 0.0 | 0.0 | 0.00 | 0.00 | 0.00 | 94 | 1011.1 |
| 20260508121723 | 5 | 0 | 0.0 | 0.0 | 0.00 | 0.00 | 0.00 | 94 | 1011.1 |
| 20260508121602 | 5 | 0 | 0.0 | 0.0 | 0.00 | 0.00 | 0.00 | 94 | 1011.2 |
| 20260508121502 | 5 | 0 | 0.0 | 0.0 | 0.00 | 0.00 | 0.00 | 94 | 1011.1 |
| 20260508121402 | 5 | 0 | 0.0 | 0.0 | 0.00 | 0.00 | 0.00 | 94 | 1011.1 |
| 20260508121302 | 5 | 0 | 0.0 | 0.0 | 0.00 | 0.00 | 0.00 | 94 | 1011.1 |
| 20260508121202 | 4 | 0 | 0.0 | 0.0 | 0.00 | 0.00 | 0.00 | 94 | 1011.1 |
| 20260508121102 | 4 | 0 | 0.0 | 0.0 | 0.00 | 0.00 | 0.00 | 94 | 1011.1 |
| 20260508121002 | 4 | 0 | 0.0 | 0.0 | 0.00 | 0.00 | 0.00 | 94 | 1011.1 |
| 20260508120902 | 4 | 0 | 0.0 | 0.0 | 0.00 | 0.00 | 0.00 | 94 | 1011.1 |
| 20260508120823 | 4 | 0 | 0.0 | 0.0 | 0.00 | 0.00 | 0.00 | 94 | 1011.1 |
| 20260508120702 | 4 | 0 | 0.0 | 0.0 | 0.00 | 0.00 | 0.00 | 94 | 1011.1 |
| 20260508120602 | 3 | 0 | 0.0 | 0.0 | 0.00 | 0.00 | 0.00 | 94 | 1011.1 |
| 20260508120523 | 3 | 0 | 0.0 | 0.0 | 0.00 | 0.00 | 0.00 | 94 | 1011.1 |
| 20260508120402 | 3 | 0 | 0.0 | 0.0 | 0.00 | 0.00 | 0.00 | 94 | 1011.1 |
| 20260508120302 | 3 | 0 | 0.0 | 0.0 | 0.00 | 0.00 | 0.00 | 94 | 1011.1 |
| 20260508120202 | 3 | 0 | 0.0 | 0.0 | 0.00 | 0.00 | 0.00 | 94 | 1011.1 |
| 20260508120023 | 3 | 0 | 0.0 | 0.0 | 0.00 | 0.00 | 0.00 | 94 | 1011.1 |
| 20260508115902 | 3 | 0 | 0.0 | 0.0 | 0.00 | 0.00 | 0.00 | 94 | 1011.1 |
| 20260508115802 | 3 | 0 | 0.0 | 0.0 | 0.00 | 0.00 | 0.00 | 94 | 1011.1 |
| 20260508115702 | 3 | 0 | 0.0 | 0.0 | 0.00 | 0.00 | 0.00 | 94 | 1011.1 |
| 20260508115602 | 3 | 0 | 0.0 | 0.0 | 0.00 | 0.00 | 0.00 | 93 | 1011.1 |
| 20260508115502 | 3 | 0 | 0.0 | 0.0 | 0.00 | 0.00 | 0.00 | 93 | 1011.1 |
| 20260508115402 | 2 | 0 | 0.0 | 0.0 | 0.00 | 0.00 | 0.00 | 93 | 1011.1 |
| 20260508115306 | 2 | 0 | 0.0 | 0.0 | 0.00 | 0.00 | 0.00 | 93 | 1011.1 |
| 20260508115202 | 2 | 0 | 0.0 | 0.0 | 0.00 | 0.00 | 0.00 | 93 | 1011.0 |
| 20260508115102 | 2 | 0 | 0.0 | 0.0 | 0.00 | 0.00 | 0.00 | 93 | 1011.0 |
| 20260508115023 | 2 | 0 | 0.0 | 0.0 | 0.00 | 0.00 | 0.00 | 93 | 1011.0 |
| 20260508114902 | 2 | 0 | 0.0 | 0.0 | 0.00 | 0.00 | 0.00 | 93 | 1011.0 |
| 20260508114823 | 2 | 0 | 0.0 | 0.0 | 0.00 | 0.00 | 0.00 | 93 | 1011.0 |
| 20260508114702 | 2 | 0 | 0.0 | 0.0 | 0.00 | 0.00 | 0.00 | 93 | 1011.0 |
| 20260508114602 | 2 | 0 | 0.0 | 0.0 | 0.00 | 0.00 | 0.00 | 93 | 1011.0 |
| 20260508114502 | 2 | 0 | 0.0 | 0.0 | 0.00 | 0.00 | 0.00 | 93 | 1010.9 |
| 20260508114402 | 2 | 0 | 0.0 | 0.0 | 0.00 | 0.00 | 0.00 | 93 | 1010.9 |
| 20260508114302 | 2 | 0 | 0.0 | 0.0 | 0.00 | 0.00 | 0.00 | 93 | 1010.9 |
| 20260508114202 | 2 | 0 | 0.0 | 0.0 | 0.00 | 0.00 | 0.00 | 93 | 1010.9 |
| 20260508114102 | 2 | 0 | 0.0 | 0.0 | 0.00 | 0.00 | 0.00 | 93 | 1010.9 |
| 20260508114002 | 2 | 0 | 0.0 | 0.0 | 0.00 | 0.00 | 0.00 | 93 | 1010.9 |
| 20260508113902 | 2 | 0 | 0.0 | 0.0 | 0.00 | 0.00 | 0.00 | 93 | 1010.8 |
| 20260508113802 | 2 | 0 | 0.0 | 0.0 | 0.00 | 0.00 | 0.00 | 93 | 1010.8 |
| 20260508113702 | 2 | 0 | 0.0 | 0.0 | 0.00 | 0.00 | 0.00 | 93 | 1010.8 |
| 20260508113602 | 2 | 0 | 0.0 | 0.0 | 0.00 | 0.00 | 0.00 | 93 | 1010.8 |
| 20260508113523 | 2 | 0 | 0.0 | 0.0 | 0.00 | 0.00 | 0.00 | 93 | 1010.8 |
| 20260508113402 | 1 | 0 | 0.0 | 0.0 | 0.00 | 0.00 | 0.00 | 93 | 1010.7 |
| 20260508113302 | 1 | 0 | 0.0 | 0.0 | 0.00 | 0.00 | 0.00 | 93 | 1010.7 |
| 20260508113202 | 1 | 0 | 0.0 | 0.0 | 0.00 | 0.00 | 0.00 | 92 | 1010.7 |
| 20260508113102 | 1 | 0 | 0.0 | 0.0 | 0.00 | 0.00 | 0.00 | 92 | 1010.7 |
| 20260508113002 | 1 | 0 | 0.0 | 0.0 | 0.00 | 0.00 | 0.00 | 92 | 1010.7 |
| 20260508112902 | 1 | 0 | 0.0 | 0.0 | 0.00 | 0.00 | 0.00 | 92 | 1010.8 |
| 20260508112802 | 1 | 0 | 0.0 | 0.0 | 0.00 | 0.00 | 0.00 | 92 | 1010.8 |
| 20260508112723 | 1 | 0 | 0.0 | 0.0 | 0.00 | 0.00 | 0.00 | 92 | 1010.7 |
| 20260508112602 | 1 | 0 | 0.0 | 0.0 | 0.00 | 0.00 | 0.00 | 92 | 1010.8 |
| 20260508112502 | 1 | 0 | 0.0 | 0.0 | 0.00 | 0.00 | 0.00 | 92 | 1010.8 |
| 20260508112402 | 1 | 0 | 0.0 | 0.0 | 0.00 | 0.00 | 0.00 | 92 | 1010.7 |
| 20260508112306 | 1 | 0 | 0.0 | 0.0 | 0.00 | 0.00 | 0.00 | 92 | 1010.7 |
| 20260508112202 | 1 | 0 | 0.0 | 0.0 | 0.00 | 0.00 | 0.00 | 92 | 1010.6 |
| 20260508112102 | 1 | 0 | 0.0 | 0.0 | 0.00 | 0.00 | 0.00 | 92 | 1010.6 |
| 20260508112002 | 1 | 0 | 0.0 | 0.0 | 0.00 | 0.00 | 0.00 | 92 | 1010.6 |
| 20260508111902 | 1 | 0 | 0.0 | 0.0 | 0.00 | 0.00 | 0.00 | 92 | 1010.6 |
| 20260508111802 | 1 | 0 | 0.0 | 0.0 | 0.00 | 0.00 | 0.00 | 92 | 1010.6 |
| 20260508111702 | 1 | 0 | 0.0 | 0.0 | 0.00 | 0.00 | 0.00 | 92 | 1010.6 |
| 20260508111602 | 1 | 0 | 0.0 | 0.0 | 0.00 | 0.00 | 0.00 | 92 | 1010.6 |
| 20260508111502 | 1 | 0 | 0.0 | 0.0 | 0.00 | 0.00 | 0.00 | 92 | 1010.6 |
| 20260508111402 | 1 | 0 | 0.0 | 0.0 | 0.00 | 0.00 | 0.00 | 92 | 1010.5 |
| 20260508111302 | 1 | 0 | 0.0 | 0.0 | 0.00 | 0.00 | 0.00 | 92 | 1010.5 |
| 20260508111202 | 1 | 0 | 0.0 | 0.0 | 0.00 | 0.00 | 0.00 | 92 | 1010.5 |
| 20260508111102 | 1 | 0 | 0.0 | 0.0 | 0.00 | 0.00 | 0.00 | 92 | 1010.5 |
| 20260508111002 | 1 | 0 | 0.0 | 0.0 | 0.00 | 0.00 | 0.00 | 92 | 1010.5 |
| 20260508110902 | 1 | 0 | 0.0 | 0.0 | 0.00 | 0.00 | 0.00 | 92 | 1010.5 |
| 20260508110802 | 1 | 0 | 0.0 | 0.0 | 0.00 | 0.00 | 0.00 | 92 | 1010.5 |
| 20260508110702 | 1 | 0 | 0.0 | 0.0 | 0.00 | 0.00 | 0.00 | 92 | 1010.5 |
| 20260508110602 | 1 | 0 | 0.0 | 0.0 | 0.00 | 0.00 | 0.00 | 92 | 1010.6 |
| 20260508110502 | 1 | 0 | 0.0 | 0.0 | 0.00 | 0.00 | 0.00 | 92 | 1010.6 |
| 20260508110402 | 1 | 0 | 0.0 | 0.0 | 0.00 | 0.00 | 0.00 | 92 | 1010.5 |
| 20260508110323 | 1 | 0 | 0.0 | 0.0 | 0.00 | 0.00 | 0.00 | 92 | 1010.5 |
| 20260508110223 | 1 | 0 | 0.0 | 0.0 | 0.00 | 0.00 | 0.00 | 92 | 1010.5 |
| 20260508110023 | 1 | 0 | 0.0 | 0.0 | 0.00 | 0.00 | 0.00 | 92 | 1010.5 |
| 20260508105902 | 1 | 0 | 0.0 | 0.0 | 0.00 | 0.00 | 0.00 | 92 | 1010.6 |
| 20260508105802 | 1 | 0 | 0.0 | 0.0 | 0.00 | 0.00 | 0.00 | 92 | 1010.6 |
| 20260508105702 | 1 | 0 | 0.0 | 0.0 | 0.00 | 0.00 | 0.00 | 92 | 1010.6 |
| 20260508105602 | 1 | 0 | 0.0 | 0.0 | 0.00 | 0.00 | 0.00 | 92 | 1010.6 |
| 20260508105523 | 1 | 0 | 0.0 | 0.0 | 0.00 | 0.00 | 0.00 | 92 | 1010.6 |
| 20260508105402 | 1 | 0 | 0.0 | 0.0 | 0.00 | 0.00 | 0.00 | 92 | 1010.5 |
| 20260508105305 | 1 | 0 | 0.0 | 0.0 | 0.00 | 0.00 | 0.00 | 92 | 1010.6 |
| 20260508105202 | 1 | 0 | 0.0 | 0.0 | 0.00 | 0.00 | 0.00 | 92 | 1010.6 |
| 20260508105102 | 1 | 0 | 0.0 | 0.0 | 0.00 | 0.00 | 0.00 | 92 | 1010.5 |
| 20260508105002 | 1 | 0 | 0.0 | 0.0 | 0.00 | 0.00 | 0.00 | 92 | 1010.6 |
| 20260508104902 | 1 | 0 | 0.0 | 0.0 | 0.00 | 0.00 | 0.00 | 92 | 1010.6 |
| 20260508104802 | 1 | 0 | 0.0 | 0.0 | 0.00 | 0.00 | 0.00 | 92 | 1010.5 |
| 20260508104702 | 1 | 0 | 0.0 | 0.0 | 0.00 | 0.00 | 0.00 | 92 | 1010.5 |
| 20260508104602 | 1 | 0 | 0.0 | 0.0 | 0.00 | 0.00 | 0.00 | 92 | 1010.5 |
| 20260508104502 | 1 | 0 | 0.0 | 0.0 | 0.00 | 0.00 | 0.00 | 92 | 1010.5 |
| 20260508104402 | 1 | 0 | 0.0 | 0.0 | 0.00 | 0.00 | 0.00 | 92 | 1010.5 |
| 20260508104302 | 1 | 0 | 0.0 | 0.0 | 0.00 | 0.00 | 0.00 | 92 | 1010.4 |
| 20260508104202 | 1 | 0 | 0.0 | 0.0 | 0.00 | 0.00 | 0.00 | 92 | 1010.4 |
| 20260508104102 | 1 | 0 | 0.0 | 0.0 | 0.00 | 0.00 | 0.00 | 92 | 1010.4 |
| 20260508104002 | 1 | 0 | 0.0 | 0.0 | 0.00 | 0.00 | 0.00 | 92 | 1010.3 |
| 20260508103923 | 1 | 0 | 0.0 | 0.0 | 0.00 | 0.00 | 0.00 | 91 | 1010.3 |
| 20260508103802 | 1 | 0 | 0.0 | 0.0 | 0.00 | 0.00 | 0.00 | 91 | 1010.3 |
| 20260508103702 | 1 | 0 | 0.0 | 0.0 | 0.00 | 0.00 | 0.00 | 91 | 1010.3 |
| 20260508103602 | 1 | 0 | 0.0 | 0.0 | 0.00 | 0.00 | 0.00 | 91 | 1010.3 |
| 20260508103502 | 1 | 0 | 0.0 | 0.0 | 0.00 | 0.00 | 0.00 | 91 | 1010.3 |
| 20260508103402 | 1 | 0 | 0.0 | 0.0 | 0.00 | 0.00 | 0.00 | 91 | 1010.3 |
| 20260508103323 | 1 | 0 | 0.0 | 0.0 | 0.00 | 0.00 | 0.00 | 91 | 1010.3 |
| 20260508103223 | 1 | 0 | 0.0 | 0.0 | 0.00 | 0.00 | 0.00 | 91 | 1010.3 |
| 20260508103102 | 1 | 0 | 0.0 | 0.0 | 0.00 | 0.00 | 0.00 | 91 | 1010.3 |
| 20260508103002 | 1 | 0 | 0.0 | 0.0 | 0.00 | 0.00 | 0.00 | 91 | 1010.2 |
| 20260508102902 | 1 | 0 | 0.0 | 0.0 | 0.00 | 0.00 | 0.00 | 91 | 1010.2 |
| 20260508102802 | 1 | 0 | 0.0 | 0.0 | 0.00 | 0.00 | 0.00 | 91 | 1010.3 |
| 20260508102723 | 1 | 0 | 0.0 | 0.0 | 0.00 | 0.00 | 0.00 | 91 | 1010.3 |
| 20260508102602 | 1 | 0 | 0.0 | 0.0 | 0.00 | 0.00 | 0.00 | 91 | 1010.2 |
| 20260508102502 | 1 | 0 | 0.0 | 0.0 | 0.00 | 0.00 | 0.00 | 91 | 1010.3 |
| 20260508102402 | 1 | 0 | 0.0 | 0.0 | 0.00 | 0.00 | 0.00 | 91 | 1010.3 |
| 20260508102306 | 1 | 0 | 0.0 | 0.0 | 0.00 | 0.00 | 0.00 | 91 | 1010.3 |
| 20260508102202 | 1 | 0 | 0.0 | 0.0 | 0.00 | 0.00 | 0.00 | 91 | 1010.3 |
| 20260508102102 | 1 | 0 | 0.0 | 0.0 | 0.00 | 0.00 | 0.00 | 91 | 1010.3 |
| 20260508102002 | 1 | 0 | 0.0 | 0.0 | 0.00 | 0.00 | 0.00 | 91 | 1010.3 |
| 20260508101902 | 1 | 0 | 0.0 | 0.0 | 0.00 | 0.00 | 0.00 | 91 | 1010.3 |
| 20260508101823 | 1 | 0 | 0.0 | 0.0 | 0.00 | 0.00 | 0.00 | 91 | 1010.3 |
| 20260508101702 | 1 | 0 | 0.0 | 0.0 | 0.00 | 0.00 | 0.00 | 91 | 1010.3 |
| 20260508101623 | 1 | 0 | 0.0 | 0.0 | 0.00 | 0.00 | 0.00 | 91 | 1010.3 |
| 20260508101502 | 1 | 0 | 0.0 | 0.0 | 0.00 | 0.00 | 0.00 | 91 | 1010.3 |
| 20260508101402 | 1 | 0 | 0.0 | 0.0 | 0.00 | 0.00 | 0.00 | 91 | 1010.3 |
| 20260508101302 | 1 | 0 | 0.0 | 0.0 | 0.00 | 0.00 | 0.00 | 91 | 1010.3 |
| 20260508101202 | 1 | 0 | 0.0 | 0.0 | 0.00 | 0.00 | 0.00 | 91 | 1010.3 |
| 20260508101123 | 1 | 0 | 0.0 | 0.0 | 0.00 | 0.00 | 0.00 | 91 | 1010.3 |
| 20260508101002 | 1 | 0 | 0.0 | 0.0 | 0.00 | 0.00 | 0.00 | 91 | 1010.3 |
| 20260508100902 | 1 | 0 | 0.0 | 0.0 | 0.00 | 0.00 | 0.00 | 91 | 1010.3 |
| 20260508100802 | 1 | 0 | 0.0 | 0.0 | 0.00 | 0.00 | 0.00 | 91 | 1010.3 |
| 20260508100723 | 1 | 0 | 0.0 | 0.0 | 0.00 | 0.00 | 0.00 | 91 | 1010.3 |
| 20260508100602 | 1 | 0 | 0.0 | 0.0 | 0.00 | 0.00 | 0.00 | 91 | 1010.3 |
| 20260508100502 | 1 | 0 | 0.0 | 0.0 | 0.00 | 0.00 | 0.00 | 91 | 1010.3 |
| 20260508100423 | 1 | 0 | 0.0 | 0.0 | 0.00 | 0.00 | 0.00 | 91 | 1010.3 |
| 20260508100302 | 1 | 0 | 0.0 | 0.0 | 0.00 | 0.00 | 0.00 | 91 | 1010.3 |
| 20260508100223 | 1 | 0 | 0.0 | 0.0 | 0.00 | 0.00 | 0.00 | 91 | 1010.3 |
| 20260508100123 | 1 | 0 | 0.0 | 0.0 | 0.00 | 0.00 | 0.00 | 91 | 1010.3 |
| 20260508100002 | 1 | 0 | 0.0 | 0.0 | 0.00 | 0.00 | 0.00 | 91 | 1010.3 |
| 20260508095902 | 1 | 0 | 0.0 | 0.0 | 0.00 | 0.00 | 0.00 | 91 | 1010.3 |
| 20260508095823 | 1 | 0 | 0.0 | 0.0 | 0.00 | 0.00 | 0.00 | 91 | 1010.3 |
| 20260508095702 | 1 | 0 | 0.0 | 0.0 | 0.00 | 0.00 | 0.00 | 91 | 1010.3 |
| 20260508095602 | 1 | 0 | 0.0 | 0.0 | 0.00 | 0.00 | 0.00 | 91 | 1010.3 |
| 20260508095502 | 1 | 0 | 0.0 | 0.0 | 0.00 | 0.00 | 0.00 | 91 | 1010.3 |
| 20260508095402 | 1 | 0 | 0.0 | 0.0 | 0.00 | 0.00 | 0.00 | 91 | 1010.3 |
| 20260508095306 | 1 | 0 | 0.0 | 0.0 | 0.00 | 0.00 | 0.00 | 91 | 1010.3 |
| 20260508095202 | 1 | 0 | 0.0 | 0.0 | 0.00 | 0.00 | 0.00 | 91 | 1010.3 |
| 20260508095102 | 1 | 0 | 0.0 | 0.0 | 0.00 | 0.00 | 0.00 | 90 | 1010.3 |
| 20260508095003 | 1 | 0 | 0.0 | 0.0 | 0.00 | 0.00 | 0.00 | 90 | 1010.3 |
| 20260508094923 | 1 | 0 | 0.0 | 0.0 | 0.00 | 0.00 | 0.00 | 90 | 1010.3 |
| 20260508094802 | 1 | 0 | 0.0 | 0.0 | 0.00 | 0.00 | 0.00 | 90 | 1010.4 |
| 20260508094723 | 1 | 0 | 0.0 | 0.0 | 0.00 | 0.00 | 0.00 | 91 | 1010.4 |
| 20260508094602 | 1 | 0 | 0.0 | 0.0 | 0.00 | 0.00 | 0.00 | 91 | 1010.3 |
| 20260508094502 | 2 | 0 | 0.0 | 0.0 | 0.00 | 0.00 | 0.00 | 91 | 1010.3 |
| 20260508094402 | 2 | 0 | 0.0 | 0.0 | 0.00 | 0.00 | 0.00 | 91 | 1010.3 |
| 20260508094302 | 2 | 0 | 0.0 | 0.0 | 0.00 | 0.00 | 0.00 | 91 | 1010.3 |
| 20260508094202 | 2 | 0 | 0.0 | 0.0 | 0.00 | 0.00 | 0.00 | 91 | 1010.3 |
| 20260508094102 | 2 | 0 | 0.0 | 0.0 | 0.00 | 0.00 | 0.00 | 91 | 1010.3 |
| 20260508094002 | 2 | 0 | 0.0 | 0.0 | 0.00 | 0.00 | 0.00 | 90 | 1010.3 |
| 20260508093923 | 2 | 0 | 0.0 | 0.0 | 0.00 | 0.00 | 0.00 | 90 | 1010.3 |
| 20260508093802 | 2 | 0 | 0.0 | 0.0 | 0.00 | 0.00 | 0.00 | 90 | 1010.3 |
| 20260508093702 | 2 | 0 | 0.0 | 0.0 | 0.00 | 0.00 | 0.00 | 90 | 1010.3 |
| 20260508093602 | 2 | 0 | 0.0 | 0.0 | 0.00 | 0.00 | 0.00 | 90 | 1010.3 |
| 20260508093502 | 2 | 0 | 0.0 | 0.0 | 0.00 | 0.00 | 0.00 | 90 | 1010.3 |
| 20260508093402 | 2 | 0 | 0.0 | 0.0 | 0.00 | 0.00 | 0.00 | 90 | 1010.3 |
| 20260508093302 | 2 | 0 | 0.0 | 0.0 | 0.00 | 0.00 | 0.00 | 90 | 1010.3 |
| 20260508093202 | 2 | 0 | 0.0 | 0.0 | 0.00 | 0.00 | 0.00 | 90 | 1010.3 |
| 20260508093102 | 2 | 0 | 0.0 | 0.0 | 0.00 | 0.00 | 0.00 | 90 | 1010.3 |
| 20260508093002 | 2 | 0 | 0.0 | 0.0 | 0.00 | 0.00 | 0.00 | 90 | 1010.3 |
| 20260508092923 | 2 | 0 | 0.0 | 0.0 | 0.00 | 0.00 | 0.00 | 90 | 1010.3 |
| 20260508092802 | 2 | 0 | 0.0 | 0.0 | 0.00 | 0.00 | 0.00 | 90 | 1010.3 |
| 20260508092702 | 2 | 0 | 0.0 | 0.0 | 0.00 | 0.00 | 0.00 | 90 | 1010.3 |
| 20260508092602 | 2 | 0 | 0.0 | 0.0 | 0.00 | 0.00 | 0.00 | 90 | 1010.3 |
| 20260508092502 | 2 | 0 | 0.0 | 0.0 | 0.00 | 0.00 | 0.00 | 90 | 1010.4 |
| 20260508092402 | 2 | 0 | 0.0 | 0.0 | 0.00 | 0.00 | 0.00 | 90 | 1010.4 |
| 20260508092311 | 2 | 0 | 0.0 | 0.0 | 0.00 | 0.00 | 0.00 | 90 | 1010.4 |
| 20260508092202 | 2 | 0 | 0.0 | 0.0 | 0.00 | 0.00 | 0.00 | 90 | 1010.5 |
| 20260508092102 | 2 | 0 | 0.0 | 0.0 | 0.00 | 0.00 | 0.00 | 90 | 1010.5 |
| 20260508092002 | 2 | 0 | 0.0 | 0.0 | 0.00 | 0.00 | 0.00 | 90 | 1010.4 |
| 20260508091923 | 2 | 0 | 0.0 | 0.0 | 0.00 | 0.00 | 0.00 | 90 | 1010.4 |
| 20260508091823 | 2 | 0 | 0.0 | 0.0 | 0.00 | 0.00 | 0.00 | 90 | 1010.4 |
| 20260508091702 | 2 | 0 | 0.0 | 0.0 | 0.00 | 0.00 | 0.00 | 90 | 1010.4 |
| 20260508091623 | 2 | 0 | 0.0 | 0.0 | 0.00 | 0.00 | 0.00 | 90 | 1010.4 |
| 20260508091502 | 2 | 0 | 0.0 | 0.0 | 0.00 | 0.00 | 0.00 | 90 | 1010.4 |
| 20260508091402 | 2 | 0 | 0.0 | 0.0 | 0.00 | 0.00 | 0.00 | 90 | 1010.4 |
| 20260508091302 | 2 | 0 | 0.0 | 0.0 | 0.00 | 0.00 | 0.00 | 90 | 1010.5 |
| 20260508091202 | 2 | 0 | 0.0 | 0.0 | 0.00 | 0.00 | 0.00 | 90 | 1010.5 |
| 20260508091102 | 2 | 0 | 0.0 | 0.0 | 0.00 | 0.00 | 0.00 | 90 | 1010.5 |
| 20260508091002 | 2 | 0 | 0.0 | 0.0 | 0.00 | 0.00 | 0.00 | 90 | 1010.5 |
| 20260508090902 | 2 | 0 | 0.0 | 0.0 | 0.00 | 0.00 | 0.00 | 90 | 1010.5 |
| 20260508090823 | 2 | 0 | 0.0 | 0.0 | 0.00 | 0.00 | 0.00 | 90 | 1010.5 |
| 20260508090702 | 2 | 0 | 0.0 | 0.0 | 0.00 | 0.00 | 0.00 | 90 | 1010.5 |
| 20260508090602 | 2 | 0 | 0.0 | 0.0 | 0.00 | 0.00 | 0.00 | 90 | 1010.5 |
| 20260508090502 | 2 | 0 | 0.0 | 0.0 | 0.00 | 0.00 | 0.00 | 90 | 1010.5 |
| 20260508090402 | 2 | 0 | 0.0 | 0.0 | 0.00 | 0.00 | 0.00 | 90 | 1010.5 |
| 20260508090323 | 2 | 0 | 0.0 | 0.0 | 0.00 | 0.00 | 0.00 | 90 | 1010.5 |
| 20260508090202 | 2 | 0 | 0.0 | 0.0 | 0.00 | 0.00 | 0.00 | 89 | 1010.5 |
| 20260508090002 | 2 | 0 | 0.0 | 0.0 | 0.00 | 0.00 | 0.00 | 89 | 1010.5 |
| 20260508085902 | 2 | 0 | 0.0 | 0.0 | 0.00 | 0.00 | 0.00 | 89 | 1010.5 |
| 20260508085802 | 2 | 0 | 0.0 | 0.0 | 0.00 | 0.00 | 0.00 | 89 | 1010.5 |
| 20260508085723 | 2 | 0 | 0.0 | 0.0 | 0.00 | 0.00 | 0.00 | 89 | 1010.5 |
| 20260508085623 | 2 | 0 | 0.0 | 0.0 | 0.00 | 0.00 | 0.00 | 89 | 1010.5 |
| 20260508085523 | 2 | 0 | 0.0 | 0.0 | 0.00 | 0.00 | 0.00 | 89 | 1010.5 |
| 20260508085402 | 2 | 0 | 0.0 | 0.0 | 0.00 | 0.00 | 0.00 | 89 | 1010.5 |
| 20260508085306 | 2 | 0 | 0.0 | 0.0 | 0.00 | 0.00 | 0.00 | 89 | 1010.5 |
| 20260508085202 | 2 | 0 | 0.0 | 0.0 | 0.00 | 0.00 | 0.00 | 89 | 1010.5 |
| 20260508085102 | 2 | 0 | 0.0 | 0.0 | 0.00 | 0.00 | 0.00 | 89 | 1010.5 |
| 20260508085002 | 2 | 0 | 0.0 | 0.0 | 0.00 | 0.00 | 0.00 | 89 | 1010.4 |
| 20260508084902 | 2 | 0 | 0.0 | 0.0 | 0.00 | 0.00 | 0.00 | 89 | 1010.5 |
| 20260508084802 | 2 | 0 | 0.0 | 0.0 | 0.00 | 0.00 | 0.00 | 89 | 1010.5 |
| 20260508084702 | 2 | 0 | 0.0 | 0.0 | 0.00 | 0.00 | 0.00 | 89 | 1010.4 |
| 20260508084602 | 2 | 0 | 0.0 | 0.0 | 0.00 | 0.00 | 0.00 | 89 | 1010.3 |
| 20260508084502 | 2 | 0 | 0.0 | 0.0 | 0.00 | 0.00 | 0.00 | 89 | 1010.3 |
| 20260508084402 | 3 | 0 | 0.0 | 0.0 | 0.00 | 0.00 | 0.00 | 89 | 1010.3 |
| 20260508084302 | 3 | 0 | 0.0 | 0.0 | 0.00 | 0.00 | 0.00 | 89 | 1010.3 |
| 20260508084202 | 3 | 0 | 0.0 | 0.0 | 0.00 | 0.00 | 0.00 | 89 | 1010.3 |
| 20260508084123 | 3 | 0 | 0.0 | 0.0 | 0.00 | 0.00 | 0.00 | 89 | 1010.3 |
| 20260508084023 | 3 | 0 | 0.0 | 0.0 | 0.00 | 0.00 | 0.00 | 89 | 1010.4 |
| 20260508083923 | 3 | 0 | 0.0 | 0.0 | 0.00 | 0.00 | 0.00 | 89 | 1010.5 |
| 20260508083823 | 3 | 0 | 0.0 | 0.0 | 0.00 | 0.00 | 0.00 | 89 | 1010.5 |
| 20260508083702 | 3 | 0 | 0.0 | 0.0 | 0.00 | 0.00 | 0.00 | 89 | 1010.5 |
| 20260508083602 | 3 | 0 | 0.0 | 0.0 | 0.00 | 0.00 | 0.00 | 88 | 1010.5 |
| 20260508083502 | 3 | 0 | 0.0 | 0.0 | 0.00 | 0.00 | 0.00 | 88 | 1010.5 |
| 20260508083402 | 3 | 0 | 0.0 | 0.0 | 0.00 | 0.00 | 0.00 | 88 | 1010.5 |
| 20260508083302 | 3 | 0 | 0.0 | 0.0 | 0.00 | 0.00 | 0.00 | 88 | 1010.5 |
| 20260508083202 | 3 | 0 | 0.0 | 0.0 | 0.00 | 0.00 | 0.00 | 88 | 1010.5 |
| 20260508083102 | 3 | 0 | 0.0 | 0.0 | 0.00 | 0.00 | 0.00 | 88 | 1010.5 |
| 20260508083024 | 3 | 0 | 0.0 | 0.0 | 0.00 | 0.00 | 0.00 | 88 | 1010.5 |
| 20260508082902 | 3 | 0 | 0.0 | 0.0 | 0.00 | 0.00 | 0.00 | 88 | 1010.5 |
| 20260508082802 | 3 | 0 | 0.0 | 0.0 | 0.00 | 0.00 | 0.00 | 88 | 1010.5 |
| 20260508082702 | 3 | 0 | 0.0 | 0.0 | 0.00 | 0.00 | 0.00 | 88 | 1010.5 |
| 20260508082602 | 3 | 0 | 0.0 | 0.0 | 0.00 | 0.00 | 0.00 | 88 | 1010.5 |
| 20260508082502 | 3 | 0 | 0.0 | 0.0 | 0.00 | 0.00 | 0.00 | 88 | 1010.5 |
| 20260508082402 | 3 | 0 | 0.0 | 0.0 | 0.00 | 0.00 | 0.00 | 88 | 1010.5 |
| 20260508082306 | 3 | 0 | 0.0 | 0.0 | 0.00 | 0.00 | 0.00 | 88 | 1010.6 |
| 20260508082202 | 3 | 0 | 0.0 | 0.0 | 0.00 | 0.00 | 0.00 | 88 | 1010.6 |
| 20260508082102 | 3 | 0 | 0.0 | 0.0 | 0.00 | 0.00 | 0.00 | 88 | 1010.5 |
| 20260508082002 | 3 | 0 | 0.0 | 0.0 | 0.00 | 0.00 | 0.00 | 88 | 1010.5 |
| 20260508081923 | 3 | 0 | 0.0 | 0.0 | 0.00 | 0.00 | 0.00 | 88 | 1010.5 |
| 20260508081802 | 3 | 0 | 0.0 | 0.0 | 0.00 | 0.00 | 0.00 | 88 | 1010.6 |
| 20260508081702 | 3 | 0 | 0.0 | 0.0 | 0.00 | 0.00 | 0.00 | 88 | 1010.6 |
| 20260508081602 | 3 | 0 | 0.0 | 0.0 | 0.00 | 0.00 | 0.00 | 88 | 1010.6 |
| 20260508081502 | 3 | 0 | 0.0 | 0.0 | 0.00 | 0.00 | 0.00 | 88 | 1010.5 |
| 20260508081402 | 3 | 0 | 0.0 | 0.0 | 0.00 | 0.00 | 0.00 | 88 | 1010.5 |
| 20260508081302 | 3 | 0 | 0.0 | 0.0 | 0.00 | 0.00 | 0.00 | 88 | 1010.5 |
| 20260508081202 | 3 | 0 | 0.0 | 0.0 | 0.00 | 0.00 | 0.00 | 88 | 1010.5 |
| 20260508081102 | 3 | 0 | 0.0 | 0.0 | 0.00 | 0.00 | 0.00 | 88 | 1010.5 |
| 20260508081002 | 3 | 0 | 0.0 | 0.0 | 0.00 | 0.00 | 0.00 | 88 | 1010.5 |
| 20260508080902 | 3 | 0 | 0.0 | 0.0 | 0.00 | 0.00 | 0.00 | 88 | 1010.5 |
| 20260508080802 | 3 | 0 | 0.0 | 0.0 | 0.00 | 0.00 | 0.00 | 88 | 1010.5 |
| 20260508080723 | 3 | 0 | 0.0 | 0.0 | 0.00 | 0.00 | 0.00 | 88 | 1010.5 |
| 20260508080602 | 3 | 0 | 0.0 | 0.0 | 0.00 | 0.00 | 0.00 | 88 | 1010.5 |
| 20260508080502 | 3 | 0 | 0.0 | 0.0 | 0.00 | 0.00 | 0.00 | 88 | 1010.5 |
| 20260508080402 | 3 | 0 | 0.0 | 0.0 | 0.00 | 0.00 | 0.00 | 88 | 1010.5 |
| 20260508080302 | 3 | 0 | 0.0 | 0.0 | 0.00 | 0.00 | 0.00 | 88 | 1010.5 |
| 20260508080202 | 3 | 0 | 0.0 | 0.0 | 0.00 | 0.00 | 0.00 | 87 | 1010.5 |
| 20260508080002 | 4 | 0 | 0.0 | 0.0 | 0.00 | 0.00 | 0.00 | 87 | 1010.5 |
| 20260508075902 | 4 | 0 | 0.0 | 0.0 | 0.00 | 0.00 | 0.00 | 87 | 1010.5 |
| 20260508075802 | 4 | 0 | 0.0 | 0.0 | 0.00 | 0.00 | 0.00 | 87 | 1010.5 |
| 20260508075702 | 4 | 0 | 0.0 | 0.0 | 0.00 | 0.00 | 0.00 | 87 | 1010.6 |
| 20260508075623 | 4 | 0 | 0.0 | 0.0 | 0.00 | 0.00 | 0.00 | 87 | 1010.6 |
| 20260508075502 | 4 | 0 | 0.0 | 0.0 | 0.00 | 0.00 | 0.00 | 86 | 1010.6 |
| 20260508075423 | 4 | 0 | 0.0 | 0.0 | 0.00 | 0.00 | 0.00 | 86 | 1010.6 |
| 20260508075307 | 4 | 0 | 0.0 | 0.0 | 0.00 | 0.00 | 0.00 | 86 | 1010.6 |
| 20260508075202 | 4 | 0 | 0.0 | 0.0 | 0.00 | 0.00 | 0.00 | 87 | 1010.6 |
| 20260508075123 | 4 | 0 | 0.0 | 0.0 | 0.00 | 0.00 | 0.00 | 87 | 1010.6 |
| 20260508075002 | 4 | 0 | 0.0 | 0.0 | 0.00 | 0.00 | 0.00 | 87 | 1010.6 |
| 20260508074902 | 4 | 0 | 0.0 | 0.0 | 0.00 | 0.00 | 0.00 | 87 | 1010.6 |
| 20260508074802 | 4 | 0 | 0.0 | 0.0 | 0.00 | 0.00 | 0.00 | 87 | 1010.5 |
| 20260508074702 | 4 | 0 | 0.0 | 0.0 | 0.00 | 0.00 | 0.00 | 86 | 1010.5 |
| 20260508074602 | 4 | 0 | 0.0 | 0.0 | 0.00 | 0.00 | 0.00 | 86 | 1010.5 |
| 20260508074502 | 4 | 0 | 0.0 | 0.0 | 0.00 | 0.00 | 0.00 | 86 | 1010.6 |
| 20260508074402 | 5 | 0 | 0.0 | 0.0 | 0.00 | 0.00 | 0.00 | 86 | 1010.6 |
| 20260508074302 | 5 | 0 | 0.0 | 0.0 | 0.00 | 0.00 | 0.00 | 86 | 1010.6 |
| 20260508074223 | 5 | 0 | 0.0 | 0.0 | 0.00 | 0.00 | 0.00 | 86 | 1010.6 |
| 20260508074102 | 5 | 0 | 0.0 | 0.0 | 0.00 | 0.00 | 0.00 | 86 | 1010.6 |
| 20260508074002 | 5 | 0 | 0.0 | 0.0 | 0.00 | 0.00 | 0.00 | 86 | 1010.6 |
| 20260508073902 | 5 | 0 | 0.0 | 0.0 | 0.00 | 0.00 | 0.00 | 86 | 1010.6 |
| 20260508073802 | 5 | 0 | 0.0 | 0.0 | 0.00 | 0.00 | 0.00 | 86 | 1010.6 |
| 20260508073702 | 5 | 0 | 0.0 | 0.0 | 0.00 | 0.00 | 0.00 | 86 | 1010.5 |
| 20260508073602 | 5 | 0 | 0.0 | 0.0 | 0.00 | 0.00 | 0.00 | 86 | 1010.5 |
| 20260508073502 | 5 | 0 | 0.0 | 0.0 | 0.00 | 0.00 | 0.00 | 86 | 1010.6 |
| 20260508073402 | 5 | 0 | 0.0 | 0.0 | 0.00 | 0.00 | 0.00 | 86 | 1010.7 |
| 20260508073302 | 5 | 0 | 0.0 | 0.0 | 0.00 | 0.00 | 0.00 | 86 | 1010.7 |
| 20260508073202 | 5 | 0 | 0.0 | 0.0 | 0.00 | 0.00 | 0.00 | 86 | 1010.7 |
| 20260508073102 | 5 | 0 | 0.0 | 0.0 | 0.00 | 0.00 | 0.00 | 86 | 1010.7 |
| 20260508073002 | 5 | 0 | 0.0 | 0.0 | 0.00 | 0.00 | 0.00 | 86 | 1010.6 |
| 20260508072902 | 5 | 0 | 0.0 | 0.0 | 0.00 | 0.00 | 0.00 | 86 | 1010.5 |
| 20260508072802 | 5 | 0 | 0.0 | 0.0 | 0.00 | 0.00 | 0.00 | 86 | 1010.5 |
| 20260508072702 | 5 | 0 | 0.0 | 0.0 | 0.00 | 0.00 | 0.00 | 86 | 1010.5 |
| 20260508072602 | 5 | 0 | 0.0 | 0.0 | 0.00 | 0.00 | 0.00 | 86 | 1010.5 |
| 20260508072502 | 5 | 0 | 0.0 | 0.0 | 0.00 | 0.00 | 0.00 | 86 | 1010.5 |
| 20260508072402 | 5 | 0 | 0.0 | 0.0 | 0.00 | 0.00 | 0.00 | 86 | 1010.6 |
| 20260508072306 | 5 | 0 | 0.0 | 0.0 | 0.00 | 0.00 | 0.00 | 86 | 1010.6 |
| 20260508072223 | 5 | 0 | 0.0 | 0.0 | 0.00 | 0.00 | 0.00 | 86 | 1010.7 |
| 20260508072102 | 5 | 0 | 0.0 | 0.0 | 0.00 | 0.00 | 0.00 | 86 | 1010.7 |
| 20260508072002 | 5 | 0 | 0.0 | 0.0 | 0.00 | 0.00 | 0.00 | 86 | 1010.7 |
| 20260508071902 | 5 | 0 | 0.0 | 0.0 | 0.00 | 0.00 | 0.00 | 86 | 1010.7 |
| 20260508071802 | 5 | 0 | 0.0 | 0.0 | 0.00 | 0.00 | 0.00 | 86 | 1010.7 |
| 20260508071723 | 5 | 0 | 0.0 | 0.0 | 0.00 | 0.00 | 0.00 | 86 | 1010.8 |
| 20260508071623 | 5 | 0 | 0.0 | 0.0 | 0.00 | 0.00 | 0.00 | 86 | 1010.8 |
| 20260508071502 | 5 | 0 | 0.0 | 0.0 | 0.00 | 0.00 | 0.00 | 86 | 1010.8 |
| 20260508071402 | 5 | 0 | 0.0 | 0.0 | 0.00 | 0.00 | 0.00 | 86 | 1010.7 |
| 20260508071302 | 5 | 0 | 0.0 | 0.0 | 0.00 | 0.00 | 0.00 | 86 | 1010.7 |
| 20260508071223 | 5 | 0 | 0.0 | 0.0 | 0.00 | 0.00 | 0.00 | 86 | 1010.8 |
| 20260508071102 | 5 | 0 | 0.0 | 0.0 | 0.00 | 0.00 | 0.00 | 86 | 1010.8 |
| 20260508071002 | 5 | 0 | 0.0 | 0.0 | 0.00 | 0.00 | 0.00 | 85 | 1010.8 |
| 20260508070902 | 5 | 0 | 0.0 | 0.0 | 0.00 | 0.00 | 0.00 | 85 | 1010.8 |
| 20260508070802 | 5 | 0 | 0.0 | 0.0 | 0.00 | 0.00 | 0.00 | 85 | 1010.8 |
| 20260508070702 | 5 | 0 | 0.0 | 0.0 | 0.00 | 0.00 | 0.00 | 85 | 1010.8 |
| 20260508070602 | 5 | 0 | 0.0 | 0.0 | 0.00 | 0.00 | 0.00 | 85 | 1010.8 |
| 20260508070523 | 5 | 0 | 0.0 | 0.0 | 0.00 | 0.00 | 0.00 | 85 | 1010.8 |
| 20260508070402 | 5 | 0 | 0.0 | 0.0 | 0.00 | 0.00 | 0.00 | 85 | 1010.7 |
| 20260508070323 | 5 | 0 | 0.0 | 0.0 | 0.00 | 0.00 | 0.00 | 85 | 1010.7 |
| 20260508070202 | 5 | 0 | 0.0 | 0.0 | 0.00 | 0.00 | 0.00 | 85 | 1010.8 |
| 20260508070002 | 5 | 0 | 0.0 | 0.0 | 0.00 | 0.00 | 0.00 | 85 | 1010.8 |
| 20260508065902 | 5 | 0 | 0.0 | 0.0 | 0.00 | 0.00 | 0.00 | 85 | 1010.8 |
| 20260508065802 | 5 | 0 | 0.0 | 0.0 | 0.00 | 0.00 | 0.00 | 85 | 1010.8 |
| 20260508065702 | 5 | 0 | 0.0 | 0.0 | 0.00 | 0.00 | 0.00 | 85 | 1010.8 |
| 20260508065602 | 5 | 0 | 0.0 | 0.0 | 0.00 | 0.00 | 0.00 | 85 | 1010.9 |
| 20260508065502 | 5 | 0 | 0.0 | 0.0 | 0.00 | 0.00 | 0.00 | 85 | 1010.8 |
| 20260508065423 | 5 | 0 | 0.0 | 0.0 | 0.00 | 0.00 | 0.00 | 85 | 1010.8 |
| 20260508065306 | 5 | 0 | 0.0 | 0.0 | 0.00 | 0.00 | 0.00 | 85 | 1010.8 |
| 20260508065223 | 5 | 0 | 0.0 | 0.0 | 0.00 | 0.00 | 0.00 | 85 | 1010.8 |
| 20260508065102 | 5 | 0 | 0.0 | 0.0 | 0.00 | 0.00 | 0.00 | 85 | 1010.8 |
| 20260508065002 | 5 | 0 | 0.0 | 0.0 | 0.00 | 0.00 | 0.00 | 85 | 1010.8 |
| 20260508064924 | 5 | 0 | 0.0 | 0.0 | 0.00 | 0.00 | 0.00 | 85 | 1010.8 |
| 20260508064802 | 5 | 0 | 0.0 | 0.0 | 0.00 | 0.00 | 0.00 | 85 | 1010.8 |
| 20260508064702 | 5 | 0 | 0.0 | 0.0 | 0.00 | 0.00 | 0.00 | 84 | 1010.8 |
| 20260508064602 | 5 | 0 | 0.0 | 0.0 | 0.00 | 0.00 | 0.00 | 84 | 1010.8 |
| 20260508064502 | 5 | 0 | 0.0 | 0.0 | 0.00 | 0.00 | 0.00 | 84 | 1010.7 |
| 20260508064402 | 5 | 0 | 0.0 | 0.0 | 0.00 | 0.00 | 0.00 | 85 | 1010.7 |
| 20260508064302 | 5 | 0 | 0.0 | 0.0 | 0.00 | 0.00 | 0.00 | 84 | 1010.8 |
| 20260508064202 | 5 | 0 | 0.0 | 0.0 | 0.00 | 0.00 | 0.00 | 85 | 1010.8 |
| 20260508064102 | 5 | 0 | 0.0 | 0.0 | 0.00 | 0.00 | 0.00 | 85 | 1010.8 |
| 20260508064023 | 5 | 0 | 0.0 | 0.0 | 0.00 | 0.00 | 0.00 | 85 | 1010.8 |
| 20260508063902 | 5 | 0 | 0.0 | 0.0 | 0.00 | 0.00 | 0.00 | 85 | 1010.8 |
| 20260508063802 | 5 | 0 | 0.0 | 0.0 | 0.00 | 0.00 | 0.00 | 85 | 1010.9 |
| 20260508063723 | 5 | 0 | 0.0 | 0.0 | 0.00 | 0.00 | 0.00 | 85 | 1010.9 |
| 20260508063602 | 5 | 215 | 0.0 | 1.6 | 0.00 | 0.00 | 0.00 | 84 | 1010.8 |
| 20260508063502 | 5 | 215 | 0.0 | 1.6 | 0.00 | 0.00 | 0.00 | 85 | 1010.8 |
| 20260508063402 | 5 | 215 | 0.0 | 1.6 | 0.00 | 0.00 | 0.00 | 85 | 1010.8 |
| 20260508063302 | 5 | 215 | 0.0 | 1.6 | 0.00 | 0.00 | 0.00 | 85 | 1010.8 |
| 20260508063202 | 5 | 215 | 0.0 | 1.6 | 0.00 | 0.00 | 0.00 | 85 | 1010.8 |
| 20260508063102 | 5 | 215 | 0.0 | 1.6 | 0.00 | 0.00 | 0.00 | 85 | 1010.8 |
| 20260508063002 | 5 | 215 | 0.0 | 1.6 | 0.00 | 0.00 | 0.00 | 84 | 1010.8 |
| 20260508062923 | 5 | 215 | 0.0 | 1.6 | 0.00 | 0.00 | 0.00 | 84 | 1010.8 |
| 20260508062802 | 5 | 215 | 0.0 | 1.6 | 0.00 | 0.00 | 0.00 | 84 | 1010.8 |
| 20260508062702 | 5 | 215 | 0.0 | 1.6 | 0.00 | 0.00 | 0.00 | 84 | 1010.8 |
| 20260508062602 | 5 | 0 | 0.0 | 0.0 | 0.00 | 0.00 | 0.00 | 84 | 1010.8 |
| 20260508062523 | 5 | 0 | 0.0 | 0.0 | 0.00 | 0.00 | 0.00 | 84 | 1010.8 |
| 20260508062423 | 5 | 0 | 0.0 | 0.0 | 0.00 | 0.00 | 0.00 | 84 | 1010.8 |
| 20260508062306 | 5 | 0 | 0.0 | 0.0 | 0.00 | 0.00 | 0.00 | 84 | 1010.8 |
| 20260508062202 | 5 | 0 | 0.0 | 0.0 | 0.00 | 0.00 | 0.00 | 84 | 1010.7 |
| 20260508062102 | 5 | 0 | 0.0 | 0.0 | 0.00 | 0.00 | 0.00 | 84 | 1010.7 |
| 20260508062002 | 5 | 0 | 0.0 | 0.0 | 0.00 | 0.00 | 0.00 | 84 | 1010.8 |
| 20260508061902 | 5 | 215 | 0.0 | 1.6 | 0.00 | 0.00 | 0.00 | 85 | 1010.8 |
| 20260508061802 | 5 | 215 | 0.0 | 1.6 | 0.00 | 0.00 | 0.00 | 85 | 1010.8 |
| 20260508061702 | 5 | 215 | 0.0 | 1.6 | 0.00 | 0.00 | 0.00 | 85 | 1010.8 |
| 20260508061602 | 5 | 215 | 0.0 | 1.6 | 0.00 | 0.00 | 0.00 | 85 | 1010.8 |
| 20260508061502 | 5 | 215 | 0.0 | 1.6 | 0.00 | 0.00 | 0.00 | 84 | 1010.8 |
| 20260508061402 | 5 | 215 | 0.0 | 1.6 | 0.00 | 0.00 | 0.00 | 84 | 1010.8 |
| 20260508061323 | 5 | 215 | 0.0 | 1.6 | 0.00 | 0.00 | 0.00 | 84 | 1010.8 |
| 20260508061202 | 5 | 215 | 0.0 | 1.6 | 0.00 | 0.00 | 0.00 | 84 | 1010.8 |
| 20260508061102 | 5 | 215 | 0.0 | 1.6 | 0.00 | 0.00 | 0.00 | 84 | 1010.8 |
| 20260508061002 | 5 | 215 | 0.0 | 1.6 | 0.00 | 0.00 | 0.00 | 84 | 1010.8 |
| 20260508060902 | 5 | 0 | 0.0 | 0.0 | 0.00 | 0.00 | 0.00 | 84 | 1010.8 |
| 20260508060823 | 5 | 0 | 0.0 | 0.0 | 0.00 | 0.00 | 0.00 | 84 | 1010.8 |
| 20260508060702 | 5 | 0 | 0.0 | 0.0 | 0.00 | 0.00 | 0.00 | 84 | 1010.8 |
| 20260508060602 | 5 | 0 | 0.0 | 0.0 | 0.00 | 0.00 | 0.00 | 84 | 1010.8 |
| 20260508060502 | 5 | 0 | 0.0 | 0.0 | 0.00 | 0.00 | 0.00 | 84 | 1010.8 |
| 20260508060402 | 5 | 0 | 0.0 | 0.0 | 0.00 | 0.00 | 0.00 | 83 | 1010.8 |
| 20260508060302 | 5 | 0 | 0.0 | 0.0 | 0.00 | 0.00 | 0.00 | 83 | 1010.8 |
| 20260508060202 | 5 | 0 | 0.0 | 0.0 | 0.00 | 0.00 | 0.00 | 83 | 1010.8 |
| 20260508060002 | 5 | 0 | 0.0 | 0.0 | 0.00 | 0.00 | 0.00 | 83 | 1010.9 |
| 20260508055902 | 5 | 0 | 0.0 | 0.0 | 0.00 | 0.00 | 0.00 | 83 | 1010.9 |
| 20260508055802 | 5 | 0 | 0.0 | 0.0 | 0.00 | 0.00 | 0.00 | 83 | 1010.9 |
| 20260508055702 | 5 | 0 | 0.0 | 0.0 | 0.00 | 0.00 | 0.00 | 83 | 1010.8 |
| 20260508055602 | 5 | 0 | 0.0 | 0.0 | 0.00 | 0.00 | 0.00 | 83 | 1010.9 |
| 20260508055502 | 5 | 0 | 0.0 | 0.0 | 0.00 | 0.00 | 0.00 | 83 | 1010.9 |
| 20260508055423 | 5 | 0 | 0.0 | 0.0 | 0.00 | 0.00 | 0.00 | 83 | 1010.9 |
| 20260508055305 | 5 | 0 | 0.0 | 0.0 | 0.00 | 0.00 | 0.00 | 83 | 1010.9 |
| 20260508055223 | 5 | 0 | 0.0 | 0.0 | 0.00 | 0.00 | 0.00 | 83 | 1010.9 |
| 20260508055102 | 5 | 0 | 0.0 | 0.0 | 0.00 | 0.00 | 0.00 | 83 | 1010.9 |
| 20260508055002 | 5 | 0 | 0.0 | 0.0 | 0.00 | 0.00 | 0.00 | 83 | 1010.9 |
| 20260508054923 | 5 | 0 | 0.0 | 0.0 | 0.00 | 0.00 | 0.00 | 83 | 1010.9 |
| 20260508054802 | 5 | 0 | 0.0 | 0.0 | 0.00 | 0.00 | 0.00 | 83 | 1010.9 |
| 20260508054702 | 5 | 0 | 0.0 | 0.0 | 0.00 | 0.00 | 0.00 | 83 | 1010.9 |
| 20260508054602 | 5 | 0 | 0.0 | 0.0 | 0.00 | 0.00 | 0.00 | 83 | 1010.9 |
| 20260508054523 | 5 | 0 | 0.0 | 0.0 | 0.00 | 0.00 | 0.00 | 83 | 1010.9 |
| 20260508054402 | 5 | 0 | 0.0 | 0.0 | 0.00 | 0.00 | 0.00 | 83 | 1010.9 |
| 20260508054302 | 5 | 0 | 0.0 | 0.0 | 0.00 | 0.00 | 0.00 | 83 | 1010.9 |
| 20260508054223 | 5 | 0 | 0.0 | 0.0 | 0.00 | 0.00 | 0.00 | 83 | 1010.9 |
| 20260508054102 | 5 | 0 | 0.0 | 0.0 | 0.00 | 0.00 | 0.00 | 83 | 1010.9 |
| 20260508054002 | 5 | 0 | 0.0 | 0.0 | 0.00 | 0.00 | 0.00 | 83 | 1010.9 |
| 20260508053923 | 5 | 0 | 0.0 | 0.0 | 0.00 | 0.00 | 0.00 | 83 | 1011.0 |
| 20260508053802 | 5 | 0 | 0.0 | 0.0 | 0.00 | 0.00 | 0.00 | 83 | 1010.9 |
| 20260508053702 | 5 | 0 | 0.0 | 0.0 | 0.00 | 0.00 | 0.00 | 83 | 1010.9 |
| 20260508053602 | 5 | 0 | 0.0 | 0.0 | 0.00 | 0.00 | 0.00 | 83 | 1010.9 |
| 20260508053502 | 5 | 0 | 0.0 | 0.0 | 0.00 | 0.00 | 0.00 | 83 | 1010.9 |
| 20260508053402 | 5 | 0 | 0.0 | 0.0 | 0.00 | 0.00 | 0.00 | 83 | 1010.9 |
| 20260508053323 | 5 | 0 | 0.0 | 0.0 | 0.00 | 0.00 | 0.00 | 83 | 1010.9 |
| 20260508053202 | 5 | 0 | 0.0 | 0.0 | 0.00 | 0.00 | 0.00 | 83 | 1010.9 |
| 20260508053123 | 5 | 0 | 0.0 | 0.0 | 0.00 | 0.00 | 0.00 | 83 | 1010.9 |
| 20260508053002 | 5 | 0 | 0.0 | 0.0 | 0.00 | 0.00 | 0.00 | 83 | 1011.0 |
| 20260508052923 | 5 | 0 | 0.0 | 0.0 | 0.00 | 0.00 | 0.00 | 83 | 1011.0 |
| 20260508052802 | 5 | 0 | 0.0 | 0.0 | 0.00 | 0.00 | 0.00 | 83 | 1010.9 |
| 20260508052723 | 5 | 0 | 0.0 | 0.0 | 0.00 | 0.00 | 0.00 | 83 | 1010.9 |
| 20260508052602 | 5 | 0 | 0.0 | 0.0 | 0.00 | 0.00 | 0.00 | 83 | 1010.8 |
| 20260508052502 | 5 | 0 | 0.0 | 0.0 | 0.00 | 0.00 | 0.00 | 83 | 1010.8 |
| 20260508052423 | 5 | 0 | 0.0 | 0.0 | 0.00 | 0.00 | 0.00 | 83 | 1010.8 |
| 20260508052306 | 5 | 0 | 0.0 | 0.0 | 0.00 | 0.00 | 0.00 | 83 | 1010.8 |
| 20260508052202 | 5 | 0 | 0.0 | 0.0 | 0.00 | 0.00 | 0.00 | 83 | 1010.8 |
| 20260508052102 | 5 | 0 | 0.0 | 0.0 | 0.00 | 0.00 | 0.00 | 83 | 1010.8 |
| 20260508052002 | 5 | 0 | 0.0 | 0.0 | 0.00 | 0.00 | 0.00 | 83 | 1010.9 |
| 20260508051902 | 5 | 0 | 0.0 | 0.0 | 0.00 | 0.00 | 0.00 | 83 | 1010.9 |
| 20260508051802 | 5 | 0 | 0.0 | 0.0 | 0.00 | 0.00 | 0.00 | 84 | 1010.9 |
| 20260508051702 | 5 | 0 | 0.0 | 0.0 | 0.00 | 0.00 | 0.00 | 84 | 1010.9 |
| 20260508051623 | 5 | 0 | 0.0 | 0.0 | 0.00 | 0.00 | 0.00 | 84 | 1010.9 |
| 20260508051502 | 5 | 0 | 0.0 | 0.0 | 0.00 | 0.00 | 0.00 | 83 | 1010.9 |
| 20260508051402 | 5 | 0 | 0.0 | 0.0 | 0.00 | 0.00 | 0.00 | 83 | 1010.9 |
| 20260508051302 | 5 | 0 | 0.0 | 0.0 | 0.00 | 0.00 | 0.00 | 83 | 1010.9 |
| 20260508051202 | 5 | 0 | 0.0 | 0.0 | 0.00 | 0.00 | 0.00 | 83 | 1010.9 |
| 20260508051102 | 5 | 0 | 0.0 | 0.0 | 0.00 | 0.00 | 0.00 | 83 | 1010.9 |
| 20260508051002 | 5 | 0 | 0.0 | 0.0 | 0.00 | 0.00 | 0.00 | 83 | 1010.9 |
| 20260508050902 | 5 | 0 | 0.0 | 0.0 | 0.00 | 0.00 | 0.00 | 83 | 1010.9 |
| 20260508050802 | 5 | 0 | 0.0 | 0.0 | 0.00 | 0.00 | 0.00 | 82 | 1010.9 |
| 20260508050702 | 5 | 0 | 0.0 | 0.0 | 0.00 | 0.00 | 0.00 | 82 | 1010.9 |
| 20260508050623 | 5 | 0 | 0.0 | 0.0 | 0.00 | 0.00 | 0.00 | 82 | 1010.9 |
| 20260508050502 | 5 | 0 | 0.0 | 0.0 | 0.00 | 0.00 | 0.00 | 83 | 1010.9 |
| 20260508050402 | 5 | 0 | 0.0 | 0.0 | 0.00 | 0.00 | 0.00 | 83 | 1010.9 |
| 20260508050323 | 5 | 0 | 0.0 | 0.0 | 0.00 | 0.00 | 0.00 | 83 | 1010.9 |
| 20260508050202 | 5 | 0 | 0.0 | 0.0 | 0.00 | 0.00 | 0.00 | 83 | 1010.9 |
| 20260508050002 | 5 | 0 | 0.0 | 0.0 | 0.00 | 0.00 | 0.00 | 82 | 1010.9 |
| 20260508045902 | 5 | 0 | 0.0 | 0.0 | 0.00 | 0.00 | 0.00 | 82 | 1010.9 |
| 20260508045802 | 6 | 0 | 0.0 | 0.0 | 0.00 | 0.00 | 0.00 | 82 | 1010.9 |
| 20260508045723 | 6 | 0 | 0.0 | 0.0 | 0.00 | 0.00 | 0.00 | 82 | 1010.9 |
| 20260508045602 | 6 | 0 | 0.0 | 0.0 | 0.00 | 0.00 | 0.00 | 82 | 1010.9 |
| 20260508045502 | 6 | 0 | 0.0 | 0.0 | 0.00 | 0.00 | 0.00 | 81 | 1010.9 |
| 20260508045402 | 6 | 0 | 0.0 | 0.0 | 0.00 | 0.00 | 0.00 | 81 | 1010.9 |
| 20260508045323 | 6 | 0 | 0.0 | 0.0 | 0.00 | 0.00 | 0.00 | 81 | 1010.9 |
| 20260508045223 | 6 | 0 | 0.0 | 0.0 | 0.00 | 0.00 | 0.00 | 81 | 1010.9 |
| 20260508045102 | 6 | 0 | 0.0 | 0.0 | 0.00 | 0.00 | 0.00 | 81 | 1010.9 |
| 20260508045002 | 6 | 0 | 0.0 | 0.0 | 0.00 | 0.00 | 0.00 | 81 | 1010.9 |
| 20260508044902 | 6 | 0 | 0.0 | 0.0 | 0.00 | 0.00 | 0.00 | 81 | 1010.9 |
| 20260508044802 | 6 | 0 | 0.0 | 0.0 | 0.00 | 0.00 | 0.00 | 81 | 1010.9 |
| 20260508044702 | 6 | 0 | 0.0 | 0.0 | 0.00 | 0.00 | 0.00 | 81 | 1010.9 |
| 20260508044602 | 6 | 0 | 0.0 | 0.0 | 0.00 | 0.00 | 0.00 | 80 | 1010.9 |
| 20260508044523 | 6 | 0 | 0.0 | 0.0 | 0.00 | 0.00 | 0.00 | 80 | 1010.9 |
| 20260508044402 | 6 | 0 | 0.0 | 0.0 | 0.00 | 0.00 | 0.00 | 80 | 1010.9 |
| 20260508044302 | 6 | 0 | 0.0 | 0.0 | 0.00 | 0.00 | 0.00 | 80 | 1010.9 |
| 20260508044202 | 6 | 0 | 0.0 | 0.0 | 0.00 | 0.00 | 0.00 | 80 | 1010.9 |
| 20260508044123 | 6 | 0 | 0.0 | 0.0 | 0.00 | 0.00 | 0.00 | 80 | 1010.9 |
| 20260508044023 | 6 | 0 | 0.0 | 0.0 | 0.00 | 0.00 | 0.00 | 80 | 1010.8 |
| 20260508043923 | 6 | 0 | 0.0 | 0.0 | 0.00 | 0.00 | 0.00 | 79 | 1010.8 |
| 20260508043802 | 6 | 0 | 0.0 | 0.0 | 0.00 | 0.00 | 0.00 | 79 | 1010.8 |
| 20260508043702 | 6 | 0 | 0.0 | 0.0 | 0.00 | 0.00 | 0.00 | 79 | 1010.8 |
| 20260508043602 | 6 | 0 | 0.0 | 0.0 | 0.00 | 0.00 | 0.00 | 79 | 1010.8 |
| 20260508043502 | 6 | 0 | 0.0 | 0.0 | 0.00 | 0.00 | 0.00 | 79 | 1010.8 |
| 20260508043402 | 6 | 0 | 0.0 | 0.0 | 0.00 | 0.00 | 0.00 | 79 | 1010.8 |
| 20260508043302 | 6 | 0 | 0.0 | 0.0 | 0.00 | 0.00 | 0.00 | 79 | 1010.8 |
| 20260508043202 | 6 | 0 | 0.0 | 0.0 | 0.00 | 0.00 | 0.00 | 79 | 1010.8 |
| 20260508043102 | 6 | 0 | 0.0 | 0.0 | 0.00 | 0.00 | 0.00 | 79 | 1010.9 |
| 20260508043002 | 6 | 0 | 0.0 | 0.0 | 0.00 | 0.00 | 0.00 | 78 | 1010.9 |
| 20260508042902 | 6 | 0 | 0.0 | 0.0 | 0.00 | 0.00 | 0.00 | 78 | 1010.9 |
| 20260508042802 | 6 | 0 | 0.0 | 0.0 | 0.00 | 0.00 | 0.00 | 78 | 1010.9 |
| 20260508042723 | 6 | 0 | 0.0 | 0.0 | 0.00 | 0.00 | 0.00 | 78 | 1010.9 |
| 20260508042602 | 6 | 0 | 0.0 | 0.0 | 0.00 | 0.00 | 0.00 | 78 | 1010.9 |
| 20260508042502 | 6 | 0 | 0.0 | 0.0 | 0.00 | 0.00 | 0.00 | 78 | 1010.9 |
| 20260508042402 | 6 | 0 | 0.0 | 0.0 | 0.00 | 0.00 | 0.00 | 77 | 1010.9 |
| 20260508042306 | 6 | 0 | 0.0 | 0.0 | 0.00 | 0.00 | 0.00 | 77 | 1010.9 |
| 20260508042202 | 6 | 0 | 0.0 | 0.0 | 0.00 | 0.00 | 0.00 | 77 | 1010.9 |
| 20260508042102 | 6 | 0 | 0.0 | 0.0 | 0.00 | 0.00 | 0.00 | 77 | 1011.0 |
| 20260508042002 | 6 | 0 | 0.0 | 0.0 | 0.00 | 0.00 | 0.00 | 77 | 1011.0 |
| 20260508041902 | 6 | 0 | 0.0 | 0.0 | 0.00 | 0.00 | 0.00 | 77 | 1011.0 |
| 20260508041802 | 6 | 0 | 0.0 | 0.0 | 0.00 | 0.00 | 0.00 | 77 | 1010.9 |
| 20260508041702 | 7 | 0 | 0.0 | 0.0 | 0.00 | 0.00 | 0.00 | 77 | 1010.9 |
| 20260508041602 | 7 | 0 | 0.0 | 0.0 | 0.00 | 0.00 | 0.00 | 77 | 1010.9 |
| 20260508041523 | 7 | 0 | 0.0 | 0.0 | 0.00 | 0.00 | 0.00 | 77 | 1010.9 |
| 20260508041402 | 7 | 0 | 0.0 | 0.0 | 0.00 | 0.00 | 0.00 | 77 | 1010.9 |
| 20260508041303 | 7 | 0 | 0.0 | 0.0 | 0.00 | 0.00 | 0.00 | 77 | 1010.8 |
| 20260508041202 | 7 | 0 | 0.0 | 0.0 | 0.00 | 0.00 | 0.00 | 76 | 1010.8 |
| 20260508041102 | 7 | 0 | 0.0 | 0.0 | 0.00 | 0.00 | 0.00 | 76 | 1010.9 |
| 20260508041002 | 7 | 0 | 0.0 | 0.0 | 0.00 | 0.00 | 0.00 | 76 | 1010.8 |
| 20260508040902 | 7 | 0 | 0.0 | 0.0 | 0.00 | 0.00 | 0.00 | 76 | 1010.8 |
| 20260508040802 | 7 | 0 | 0.0 | 0.0 | 0.00 | 0.00 | 0.00 | 76 | 1010.8 |
| 20260508040702 | 7 | 0 | 0.0 | 0.0 | 0.00 | 0.00 | 0.00 | 76 | 1010.8 |
| 20260508040623 | 7 | 0 | 0.0 | 0.0 | 0.00 | 0.00 | 0.00 | 76 | 1010.8 |
| 20260508040523 | 7 | 0 | 0.0 | 0.0 | 0.00 | 0.00 | 0.00 | 76 | 1010.8 |
| 20260508040402 | 7 | 0 | 0.0 | 0.0 | 0.00 | 0.00 | 0.00 | 75 | 1010.8 |
| 20260508040302 | 7 | 0 | 0.0 | 0.0 | 0.00 | 0.00 | 0.00 | 75 | 1010.9 |
| 20260508040202 | 7 | 0 | 0.0 | 0.0 | 0.00 | 0.00 | 0.00 | 75 | 1010.9 |
| 20260508040002 | 7 | 0 | 0.0 | 0.0 | 0.00 | 0.00 | 0.00 | 74 | 1010.9 |
| 20260508035902 | 7 | 0 | 0.0 | 0.0 | 0.00 | 0.00 | 0.00 | 74 | 1010.9 |
| 20260508035802 | 7 | 0 | 0.0 | 0.0 | 0.00 | 0.00 | 0.00 | 74 | 1010.9 |
| 20260508035723 | 7 | 0 | 0.0 | 0.0 | 0.00 | 0.00 | 0.00 | 74 | 1010.9 |
| 20260508035602 | 7 | 0 | 0.0 | 0.0 | 0.00 | 0.00 | 0.00 | 74 | 1010.9 |
| 20260508035502 | 7 | 0 | 0.0 | 0.0 | 0.00 | 0.00 | 0.00 | 73 | 1010.9 |
| 20260508035402 | 8 | 0 | 0.0 | 0.0 | 0.00 | 0.00 | 0.00 | 72 | 1010.8 |
| 20260508035306 | 8 | 0 | 0.0 | 0.0 | 0.00 | 0.00 | 0.00 | 72 | 1010.8 |
| 20260508035202 | 8 | 0 | 0.0 | 0.0 | 0.00 | 0.00 | 0.00 | 72 | 1010.8 |
| 20260508035123 | 8 | 0 | 0.0 | 0.0 | 0.00 | 0.00 | 0.00 | 72 | 1010.8 |
| 20260508035002 | 8 | 0 | 0.0 | 0.0 | 0.00 | 0.00 | 0.00 | 72 | 1010.8 |
| 20260508034902 | 8 | 0 | 0.0 | 0.0 | 0.00 | 0.00 | 0.00 | 72 | 1010.8 |
| 20260508034802 | 8 | 0 | 0.0 | 0.0 | 0.00 | 0.00 | 0.00 | 72 | 1010.8 |
| 20260508034702 | 8 | 0 | 0.0 | 0.0 | 0.00 | 0.00 | 0.00 | 70 | 1010.8 |
| 20260508034602 | 8 | 0 | 0.0 | 0.0 | 0.00 | 0.00 | 0.00 | 69 | 1010.8 |
| 20260508034502 | 8 | 0 | 0.0 | 0.0 | 0.00 | 0.00 | 0.00 | 68 | 1010.8 |
| 20260508034402 | 8 | 0 | 0.0 | 0.0 | 0.00 | 0.00 | 0.00 | 69 | 1010.8 |
| 20260508034302 | 8 | 0 | 0.0 | 0.0 | 0.00 | 0.00 | 0.00 | 70 | 1010.8 |
| 20260508034202 | 8 | 0 | 0.0 | 0.0 | 0.00 | 0.00 | 0.00 | 69 | 1010.8 |
| 20260508034102 | 8 | 0 | 0.0 | 0.0 | 0.00 | 0.00 | 0.00 | 69 | 1010.8 |
| 20260508034002 | 8 | 0 | 0.0 | 0.0 | 0.00 | 0.00 | 0.00 | 69 | 1010.8 |
| 20260508033923 | 9 | 0 | 0.0 | 0.0 | 0.00 | 0.00 | 0.00 | 70 | 1010.8 |
| 20260508033802 | 9 | 0 | 0.0 | 0.0 | 0.00 | 0.00 | 0.00 | 68 | 1010.8 |
| 20260508033702 | 9 | 0 | 0.0 | 0.0 | 0.00 | 0.00 | 0.00 | 69 | 1010.8 |
| 20260508033602 | 9 | 215 | 0.0 | 1.6 | 0.00 | 0.00 | 0.00 | 68 | 1010.8 |
| 20260508033502 | 9 | 215 | 0.0 | 1.6 | 0.00 | 0.00 | 0.00 | 67 | 1010.8 |
| 20260508033402 | 9 | 215 | 0.0 | 1.6 | 0.00 | 0.00 | 0.00 | 65 | 1010.8 |
| 20260508033302 | 9 | 215 | 0.0 | 1.6 | 0.00 | 0.00 | 0.00 | 65 | 1010.8 |
| 20260508033202 | 9 | 215 | 0.0 | 1.6 | 0.00 | 0.00 | 0.00 | 64 | 1010.8 |
| 20260508033102 | 9 | 215 | 0.0 | 1.6 | 0.00 | 0.00 | 0.00 | 64 | 1010.8 |
| 20260508033002 | 9 | 217 | 0.0 | 3.2 | 0.00 | 0.00 | 0.00 | 64 | 1010.8 |
| 20260508032923 | 9 | 223 | 0.0 | 3.2 | 0.00 | 0.00 | 0.00 | 64 | 1010.8 |
| 20260508032802 | 9 | 223 | 0.0 | 3.2 | 0.00 | 0.00 | 0.00 | 64 | 1010.7 |
| 20260508032702 | 9 | 223 | 0.0 | 3.2 | 0.00 | 0.00 | 0.00 | 63 | 1010.7 |
| 20260508032602 | 9 | 224 | 0.0 | 3.2 | 0.00 | 0.00 | 0.00 | 62 | 1010.7 |
| 20260508032502 | 9 | 224 | 0.0 | 3.2 | 0.00 | 0.00 | 0.00 | 62 | 1010.7 |
| 20260508032402 | 9 | 225 | 0.0 | 3.2 | 0.00 | 0.00 | 0.00 | 62 | 1010.7 |
| 20260508032306 | 9 | 226 | 0.0 | 3.2 | 0.00 | 0.00 | 0.00 | 62 | 1010.7 |
| 20260508032202 | 9 | 226 | 0.0 | 3.2 | 0.00 | 0.00 | 0.00 | 62 | 1010.8 |
| 20260508032102 | 9 | 226 | 0.0 | 3.2 | 0.00 | 0.00 | 0.00 | 63 | 1010.8 |
| 20260508032002 | 9 | 235 | 0.0 | 1.6 | 0.00 | 0.00 | 0.00 | 64 | 1010.8 |
| 20260508031902 | 9 | 0 | 0.0 | 0.0 | 0.00 | 0.00 | 0.00 | 63 | 1010.8 |
| 20260508031802 | 9 | 0 | 0.0 | 0.0 | 0.00 | 0.00 | 0.00 | 62 | 1010.8 |
| 20260508031702 | 9 | 0 | 0.0 | 0.0 | 0.00 | 0.00 | 0.00 | 63 | 1010.7 |
| 20260508031602 | 9 | 0 | 0.0 | 0.0 | 0.00 | 0.00 | 0.00 | 63 | 1010.7 |
| 20260508031502 | 9 | 0 | 0.0 | 0.0 | 0.00 | 0.00 | 0.00 | 63 | 1010.8 |
| 20260508031402 | 9 | 0 | 0.0 | 0.0 | 0.00 | 0.00 | 0.00 | 63 | 1010.8 |
| 20260508031302 | 9 | 0 | 0.0 | 0.0 | 0.00 | 0.00 | 0.00 | 63 | 1010.8 |
| 20260508031223 | 9 | 0 | 0.0 | 0.0 | 0.00 | 0.00 | 0.00 | 63 | 1010.8 |
| 20260508031102 | 9 | 0 | 0.0 | 0.0 | 0.00 | 0.00 | 0.00 | 64 | 1010.7 |
| 20260508031023 | 9 | 0 | 0.0 | 0.0 | 0.00 | 0.00 | 0.00 | 63 | 1010.7 |
| 20260508030923 | 9 | 0 | 0.0 | 0.0 | 0.00 | 0.00 | 0.00 | 62 | 1010.7 |
| 20260508030823 | 9 | 0 | 0.0 | 0.0 | 0.00 | 0.00 | 0.00 | 61 | 1010.8 |
| 20260508030702 | 9 | 0 | 0.0 | 0.0 | 0.00 | 0.00 | 0.00 | 61 | 1010.8 |
| 20260508030602 | 9 | 0 | 0.0 | 0.0 | 0.00 | 0.00 | 0.00 | 61 | 1010.8 |
| 20260508030502 | 9 | 0 | 0.0 | 0.0 | 0.00 | 0.00 | 0.00 | 62 | 1010.8 |
| 20260508030402 | 9 | 0 | 0.0 | 0.0 | 0.00 | 0.00 | 0.00 | 62 | 1010.8 |
| 20260508030302 | 9 | 0 | 0.0 | 0.0 | 0.00 | 0.00 | 0.00 | 62 | 1010.8 |
| 20260508030223 | 9 | 0 | 0.0 | 0.0 | 0.00 | 0.00 | 0.00 | 62 | 1010.8 |
| 20260508030002 | 9 | 0 | 0.0 | 0.0 | 0.00 | 0.00 | 0.00 | 63 | 1010.8 |
| 20260508025923 | 9 | 0 | 0.0 | 0.0 | 0.00 | 0.00 | 0.00 | 62 | 1010.8 |
| 20260508025802 | 9 | 0 | 0.0 | 0.0 | 0.00 | 0.00 | 0.00 | 62 | 1010.8 |
| 20260508025702 | 9 | 0 | 0.0 | 0.0 | 0.00 | 0.00 | 0.00 | 63 | 1010.9 |
| 20260508025602 | 9 | 0 | 0.0 | 0.0 | 0.00 | 0.00 | 0.00 | 63 | 1010.9 |
| 20260508025502 | 9 | 0 | 0.0 | 0.0 | 0.00 | 0.00 | 0.00 | 63 | 1010.9 |
| 20260508025402 | 9 | 0 | 0.0 | 0.0 | 0.00 | 0.00 | 0.00 | 62 | 1010.9 |
| 20260508025305 | 9 | 0 | 0.0 | 0.0 | 0.00 | 0.00 | 0.00 | 61 | 1010.9 |
| 20260508025223 | 9 | 0 | 0.0 | 0.0 | 0.00 | 0.00 | 0.00 | 61 | 1011.0 |
| 20260508025102 | 9 | 0 | 0.0 | 0.0 | 0.00 | 0.00 | 0.00 | 62 | 1011.0 |
| 20260508025003 | 9 | 0 | 0.0 | 0.0 | 0.00 | 0.00 | 0.00 | 62 | 1011.0 |
| 20260508024902 | 9 | 0 | 0.0 | 0.0 | 0.00 | 0.00 | 0.00 | 62 | 1011.0 |
| 20260508024802 | 9 | 0 | 0.0 | 0.0 | 0.00 | 0.00 | 0.00 | 63 | 1011.0 |
| 20260508024702 | 9 | 0 | 0.0 | 0.0 | 0.00 | 0.00 | 0.00 | 63 | 1010.9 |
| 20260508024602 | 9 | 0 | 0.0 | 0.0 | 0.00 | 0.00 | 0.00 | 64 | 1010.9 |
| 20260508024502 | 9 | 0 | 0.0 | 0.0 | 0.00 | 0.00 | 0.00 | 63 | 1010.9 |
| 20260508024402 | 9 | 0 | 0.0 | 0.0 | 0.00 | 0.00 | 0.00 | 64 | 1010.9 |
| 20260508024302 | 9 | 0 | 0.0 | 0.0 | 0.00 | 0.00 | 0.00 | 63 | 1010.9 |
| 20260508024202 | 9 | 0 | 0.0 | 0.0 | 0.00 | 0.00 | 0.00 | 62 | 1010.9 |
| 20260508024102 | 9 | 0 | 0.0 | 0.0 | 0.00 | 0.00 | 0.00 | 63 | 1011.0 |
| 20260508024002 | 9 | 0 | 0.0 | 0.0 | 0.00 | 0.00 | 0.00 | 63 | 1011.0 |
| 20260508023923 | 9 | 0 | 0.0 | 0.0 | 0.00 | 0.00 | 0.00 | 63 | 1011.1 |
| 20260508023802 | 9 | 0 | 0.0 | 0.0 | 0.00 | 0.00 | 0.00 | 61 | 1011.1 |
| 20260508023723 | 9 | 0 | 0.0 | 0.0 | 0.00 | 0.00 | 0.00 | 61 | 1011.1 |
| 20260508023602 | 9 | 0 | 0.0 | 0.0 | 0.00 | 0.00 | 0.00 | 62 | 1011.0 |
| 20260508023502 | 9 | 0 | 0.0 | 0.0 | 0.00 | 0.00 | 0.00 | 62 | 1011.0 |
| 20260508023402 | 9 | 0 | 0.0 | 0.0 | 0.00 | 0.00 | 0.00 | 63 | 1011.1 |
| 20260508023302 | 9 | 0 | 0.0 | 0.0 | 0.00 | 0.00 | 0.00 | 61 | 1011.1 |
| 20260508023202 | 9 | 0 | 0.0 | 0.0 | 0.00 | 0.00 | 0.00 | 60 | 1011.1 |
| 20260508023123 | 9 | 0 | 0.0 | 0.0 | 0.00 | 0.00 | 0.00 | 60 | 1011.0 |
| 20260508023002 | 9 | 0 | 0.0 | 0.0 | 0.00 | 0.00 | 0.00 | 61 | 1011.0 |
| 20260508022902 | 9 | 0 | 0.0 | 0.0 | 0.00 | 0.00 | 0.00 | 62 | 1011.0 |
| 20260508022802 | 9 | 0 | 0.0 | 0.0 | 0.00 | 0.00 | 0.00 | 62 | 1011.0 |
| 20260508022702 | 9 | 0 | 0.0 | 0.0 | 0.00 | 0.00 | 0.00 | 62 | 1011.0 |
| 20260508022602 | 9 | 0 | 0.0 | 0.0 | 0.00 | 0.00 | 0.00 | 62 | 1011.0 |
| 20260508022502 | 9 | 0 | 0.0 | 0.0 | 0.00 | 0.00 | 0.00 | 62 | 1011.0 |
| 20260508022402 | 9 | 0 | 0.0 | 0.0 | 0.00 | 0.00 | 0.00 | 62 | 1011.0 |
| 20260508022306 | 9 | 0 | 0.0 | 0.0 | 0.00 | 0.00 | 0.00 | 61 | 1010.9 |
| 20260508022202 | 9 | 0 | 0.0 | 0.0 | 0.00 | 0.00 | 0.00 | 63 | 1010.9 |
| 20260508022102 | 9 | 0 | 0.0 | 0.0 | 0.00 | 0.00 | 0.00 | 63 | 1011.0 |
| 20260508022023 | 9 | 0 | 0.0 | 0.0 | 0.00 | 0.00 | 0.00 | 63 | 1011.0 |
| 20260508021902 | 9 | 0 | 0.0 | 0.0 | 0.00 | 0.00 | 0.00 | 61 | 1010.9 |
| 20260508021802 | 9 | 0 | 0.0 | 0.0 | 0.00 | 0.00 | 0.00 | 60 | 1010.8 |
| 20260508021702 | 9 | 0 | 0.0 | 0.0 | 0.00 | 0.00 | 0.00 | 60 | 1010.8 |
| 20260508021602 | 9 | 0 | 0.0 | 0.0 | 0.00 | 0.00 | 0.00 | 59 | 1010.9 |
| 20260508021502 | 9 | 0 | 0.0 | 0.0 | 0.00 | 0.00 | 0.00 | 60 | 1010.9 |
| 20260508021423 | 9 | 0 | 0.0 | 0.0 | 0.00 | 0.00 | 0.00 | 60 | 1010.9 |
| 20260508021302 | 9 | 0 | 0.0 | 0.0 | 0.00 | 0.00 | 0.00 | 60 | 1010.9 |
| 20260508021202 | 9 | 0 | 0.0 | 0.0 | 0.00 | 0.00 | 0.00 | 60 | 1010.9 |
| 20260508021102 | 9 | 0 | 0.0 | 0.0 | 0.00 | 0.00 | 0.00 | 58 | 1010.9 |
| 20260508021002 | 9 | 0 | 0.0 | 0.0 | 0.00 | 0.00 | 0.00 | 59 | 1010.9 |
| 20260508020902 | 9 | 0 | 0.0 | 0.0 | 0.00 | 0.00 | 0.00 | 61 | 1010.9 |
| 20260508020802 | 9 | 0 | 0.0 | 0.0 | 0.00 | 0.00 | 0.00 | 61 | 1010.9 |
| 20260508020702 | 9 | 0 | 0.0 | 0.0 | 0.00 | 0.00 | 0.00 | 62 | 1010.9 |
| 20260508020602 | 9 | 0 | 0.0 | 0.0 | 0.00 | 0.00 | 0.00 | 57 | 1010.9 |
| 20260508020502 | 10 | 0 | 0.0 | 0.0 | 0.00 | 0.00 | 0.00 | 57 | 1010.9 |
| 20260508020402 | 10 | 0 | 0.0 | 0.0 | 0.00 | 0.00 | 0.00 | 58 | 1010.9 |
| 20260508020302 | 10 | 0 | 0.0 | 0.0 | 0.00 | 0.00 | 0.00 | 59 | 1010.9 |
| 20260508020223 | 10 | 0 | 0.0 | 0.0 | 0.00 | 0.00 | 0.00 | 59 | 1010.9 |
| 20260508020002 | 10 | 0 | 0.0 | 0.0 | 0.00 | 0.00 | 0.00 | 59 | 1010.9 |
| 20260508015923 | 10 | 0 | 0.0 | 0.0 | 0.00 | 0.00 | 0.00 | 58 | 1010.9 |
| 20260508015802 | 10 | 0 | 0.0 | 0.0 | 0.00 | 0.00 | 0.00 | 56 | 1010.8 |
| 20260508015702 | 10 | 0 | 0.0 | 0.0 | 0.00 | 0.00 | 0.00 | 55 | 1010.7 |
| 20260508015602 | 10 | 0 | 0.0 | 0.0 | 0.00 | 0.00 | 0.00 | 55 | 1010.7 |
| 20260508015523 | 10 | 0 | 0.0 | 0.0 | 0.00 | 0.00 | 0.00 | 57 | 1010.8 |
| 20260508015402 | 10 | 0 | 0.0 | 0.0 | 0.00 | 0.00 | 0.00 | 55 | 1010.8 |
| 20260508015305 | 10 | 0 | 0.0 | 0.0 | 0.00 | 0.00 | 0.00 | 55 | 1010.8 |
| 20260508015202 | 10 | 0 | 0.0 | 0.0 | 0.00 | 0.00 | 0.00 | 58 | 1010.8 |
| 20260508015102 | 10 | 0 | 0.0 | 0.0 | 0.00 | 0.00 | 0.00 | 56 | 1010.8 |
| 20260508015002 | 10 | 0 | 0.0 | 0.0 | 0.00 | 0.00 | 0.00 | 55 | 1010.9 |
| 20260508014902 | 10 | 0 | 0.0 | 0.0 | 0.00 | 0.00 | 0.00 | 55 | 1010.9 |
| 20260508014802 | 10 | 0 | 0.0 | 0.0 | 0.00 | 0.00 | 0.00 | 56 | 1010.8 |
| 20260508014702 | 10 | 0 | 0.0 | 0.0 | 0.00 | 0.00 | 0.00 | 55 | 1010.8 |
| 20260508014602 | 10 | 346 | 0.0 | 1.6 | 0.00 | 0.00 | 0.00 | 55 | 1010.8 |
| 20260508014502 | 10 | 304 | 0.0 | 1.6 | 0.00 | 0.00 | 0.00 | 55 | 1010.9 |
| 20260508014402 | 10 | 273 | 0.0 | 3.2 | 0.00 | 0.00 | 0.00 | 54 | 1010.8 |
| 20260508014302 | 10 | 275 | 0.0 | 3.2 | 0.00 | 0.00 | 0.00 | 54 | 1010.8 |
| 20260508014202 | 10 | 286 | 0.0 | 3.2 | 0.00 | 0.00 | 0.00 | 54 | 1010.8 |
| 20260508014102 | 10 | 311 | 1.6 | 3.2 | 0.00 | 0.00 | 0.00 | 54 | 1010.8 |
| 20260508014002 | 10 | 328 | 1.6 | 3.2 | 0.00 | 0.00 | 0.00 | 55 | 1010.8 |
| 20260508013923 | 10 | 337 | 1.6 | 6.4 | 0.00 | 0.00 | 0.00 | 55 | 1010.8 |
| 20260508013802 | 10 | 338 | 1.6 | 9.7 | 0.00 | 0.00 | 0.00 | 56 | 1010.8 |
| 20260508013702 | 10 | 335 | 1.6 | 9.7 | 0.00 | 0.00 | 0.00 | 56 | 1010.9 |
| 20260508013602 | 10 | 346 | 1.6 | 9.7 | 0.00 | 0.00 | 0.00 | 54 | 1010.9 |
| 20260508013502 | 10 | 350 | 1.6 | 9.7 | 0.00 | 0.00 | 0.00 | 53 | 1010.8 |
| 20260508013402 | 10 | 354 | 1.6 | 9.7 | 0.00 | 0.00 | 0.00 | 53 | 1010.8 |
| 20260508013302 | 10 | 354 | 1.6 | 9.7 | 0.00 | 0.00 | 0.00 | 54 | 1010.8 |
| 20260508013202 | 9 | 354 | 1.6 | 9.7 | 0.00 | 0.00 | 0.00 | 55 | 1010.8 |
| 20260508013102 | 9 | 356 | 1.6 | 9.7 | 0.00 | 0.00 | 0.00 | 57 | 1010.8 |
| 20260508013002 | 9 | 355 | 1.6 | 9.7 | 0.00 | 0.00 | 0.00 | 57 | 1010.8 |
| 20260508012923 | 9 | 353 | 1.6 | 9.7 | 0.00 | 0.00 | 0.00 | 59 | 1010.8 |
| 20260508012802 | 9 | 8 | 1.6 | 4.8 | 0.00 | 0.00 | 0.00 | 60 | 1010.7 |
| 20260508012723 | 9 | 6 | 0.0 | 4.8 | 0.00 | 0.00 | 0.00 | 60 | 1010.7 |
| 20260508012602 | 9 | 348 | 0.0 | 4.8 | 0.00 | 0.00 | 0.00 | 57 | 1010.6 |
| 20260508012502 | 9 | 0 | 0.0 | 0.0 | 0.00 | 0.00 | 0.00 | 56 | 1010.6 |
| 20260508012423 | 9 | 0 | 0.0 | 0.0 | 0.00 | 0.00 | 0.00 | 56 | 1010.6 |
| 20260508012307 | 9 | 0 | 0.0 | 0.0 | 0.00 | 0.00 | 0.00 | 56 | 1010.6 |
| 20260508012223 | 9 | 0 | 0.0 | 0.0 | 0.00 | 0.00 | 0.00 | 56 | 1010.6 |
| 20260508012102 | 9 | 0 | 0.0 | 0.0 | 0.00 | 0.00 | 0.00 | 56 | 1010.6 |
| 20260508012023 | 9 | 0 | 0.0 | 0.0 | 0.00 | 0.00 | 0.00 | 57 | 1010.6 |
| 20260508011923 | 9 | 0 | 0.0 | 0.0 | 0.00 | 0.00 | 0.00 | 57 | 1010.6 |
| 20260508011802 | 9 | 0 | 0.0 | 0.0 | 0.00 | 0.00 | 0.00 | 58 | 1010.6 |
| 20260508011702 | 9 | 0 | 0.0 | 0.0 | 0.00 | 0.00 | 0.00 | 58 | 1010.5 |
| 20260508011602 | 9 | 0 | 0.0 | 0.0 | 0.00 | 0.00 | 0.00 | 58 | 1010.5 |
| 20260508011523 | 9 | 0 | 0.0 | 0.0 | 0.00 | 0.00 | 0.00 | 58 | 1010.5 |
| 20260508011423 | 9 | 0 | 0.0 | 0.0 | 0.00 | 0.00 | 0.00 | 56 | 1010.5 |
| 20260508011302 | 9 | 0 | 0.0 | 0.0 | 0.00 | 0.00 | 0.00 | 59 | 1010.5 |
| 20260508011202 | 9 | 0 | 0.0 | 0.0 | 0.00 | 0.00 | 0.00 | 57 | 1010.5 |
| 20260508011102 | 9 | 0 | 0.0 | 0.0 | 0.00 | 0.00 | 0.00 | 57 | 1010.4 |
| 20260508011002 | 9 | 0 | 0.0 | 0.0 | 0.00 | 0.00 | 0.00 | 58 | 1010.4 |
| 20260508010902 | 9 | 0 | 0.0 | 0.0 | 0.00 | 0.00 | 0.00 | 55 | 1010.4 |
| 20260508010802 | 9 | 0 | 0.0 | 0.0 | 0.00 | 0.00 | 0.00 | 56 | 1010.4 |
| 20260508010723 | 10 | 0 | 0.0 | 0.0 | 0.00 | 0.00 | 0.00 | 58 | 1010.4 |
| 20260508010602 | 10 | 0 | 0.0 | 0.0 | 0.00 | 0.00 | 0.00 | 57 | 1010.4 |
| 20260508010502 | 10 | 0 | 0.0 | 0.0 | 0.00 | 0.00 | 0.00 | 58 | 1010.4 |
| 20260508010402 | 10 | 0 | 0.0 | 0.0 | 0.00 | 0.00 | 0.00 | 59 | 1010.4 |
| 20260508010302 | 10 | 0 | 0.0 | 0.0 | 0.00 | 0.00 | 0.00 | 59 | 1010.5 |
| 20260508010202 | 10 | 0 | 0.0 | 0.0 | 0.00 | 0.00 | 0.00 | 57 | 1010.5 |
| 20260508010002 | 10 | 0 | 0.0 | 0.0 | 0.00 | 0.00 | 0.00 | 56 | 1010.5 |
| 20260508005902 | 10 | 0 | 0.0 | 0.0 | 0.00 | 0.00 | 0.00 | 57 | 1010.4 |
| 20260508005823 | 10 | 0 | 0.0 | 0.0 | 0.00 | 0.00 | 0.00 | 57 | 1010.4 |
| 20260508005723 | 10 | 0 | 0.0 | 0.0 | 0.00 | 0.00 | 0.00 | 54 | 1010.4 |
| 20260508005602 | 10 | 0 | 0.0 | 0.0 | 0.00 | 0.00 | 0.00 | 56 | 1010.4 |
| 20260508005502 | 10 | 0 | 0.0 | 0.0 | 0.00 | 0.00 | 0.00 | 55 | 1010.4 |
| 20260508005402 | 10 | 0 | 0.0 | 0.0 | 0.00 | 0.00 | 0.00 | 57 | 1010.4 |
| 20260508005305 | 10 | 0 | 0.0 | 0.0 | 0.00 | 0.00 | 0.00 | 55 | 1010.3 |
| 20260508005202 | 10 | 0 | 0.0 | 0.0 | 0.00 | 0.00 | 0.00 | 49 | 1010.3 |
| 20260508005102 | 10 | 0 | 0.0 | 0.0 | 0.00 | 0.00 | 0.00 | 49 | 1010.3 |
| 20260508005002 | 10 | 0 | 0.0 | 0.0 | 0.00 | 0.00 | 0.00 | 49 | 1010.3 |
| 20260508004902 | 10 | 0 | 0.0 | 0.0 | 0.00 | 0.00 | 0.00 | 48 | 1010.3 |
| 20260508004802 | 10 | 0 | 0.0 | 0.0 | 0.00 | 0.00 | 0.00 | 49 | 1010.2 |
| 20260508004702 | 10 | 0 | 0.0 | 0.0 | 0.00 | 0.00 | 0.00 | 49 | 1010.2 |
| 20260508004602 | 10 | 0 | 0.0 | 0.0 | 0.00 | 0.00 | 0.00 | 50 | 1010.2 |
| 20260508004502 | 10 | 0 | 0.0 | 0.0 | 0.00 | 0.00 | 0.00 | 50 | 1010.3 |
| 20260508004402 | 10 | 0 | 0.0 | 0.0 | 0.00 | 0.00 | 0.00 | 51 | 1010.3 |
| 20260508004302 | 10 | 0 | 0.0 | 0.0 | 0.00 | 0.00 | 0.00 | 49 | 1010.3 |
| 20260508004202 | 11 | 0 | 0.0 | 0.0 | 0.00 | 0.00 | 0.00 | 50 | 1010.3 |
| 20260508004102 | 11 | 8 | 0.0 | 1.6 | 0.00 | 0.00 | 0.00 | 50 | 1010.2 |
| 20260508004002 | 11 | 8 | 0.0 | 1.6 | 0.00 | 0.00 | 0.00 | 49 | 1010.2 |
| 20260508003902 | 11 | 8 | 0.0 | 1.6 | 0.00 | 0.00 | 0.00 | 48 | 1010.2 |
| 20260508003802 | 11 | 8 | 0.0 | 1.6 | 0.00 | 0.00 | 0.00 | 48 | 1010.2 |
| 20260508003702 | 11 | 13 | 0.0 | 3.2 | 0.00 | 0.00 | 0.00 | 48 | 1010.2 |
| 20260508003602 | 11 | 11 | 0.0 | 3.2 | 0.00 | 0.00 | 0.00 | 46 | 1010.2 |
| 20260508003502 | 11 | 12 | 0.0 | 3.2 | 0.00 | 0.00 | 0.00 | 46 | 1010.3 |
| 20260508003402 | 11 | 12 | 0.0 | 3.2 | 0.00 | 0.00 | 0.00 | 46 | 1010.3 |
| 20260508003302 | 11 | 12 | 0.0 | 3.2 | 0.00 | 0.00 | 0.00 | 47 | 1010.3 |
| 20260508003202 | 11 | 10 | 0.0 | 4.8 | 0.00 | 0.00 | 0.00 | 46 | 1010.2 |
| 20260508003102 | 11 | 9 | 0.0 | 4.8 | 0.00 | 0.00 | 0.00 | 45 | 1010.2 |
| 20260508003002 | 11 | 9 | 0.0 | 4.8 | 0.00 | 0.00 | 0.00 | 46 | 1010.2 |
| 20260508002902 | 11 | 11 | 1.6 | 4.8 | 0.00 | 0.00 | 0.00 | 45 | 1010.2 |
| 20260508002803 | 11 | 10 | 1.6 | 4.8 | 0.00 | 0.00 | 0.00 | 46 | 1010.2 |
| 20260508002702 | 11 | 1 | 1.6 | 4.8 | 0.00 | 0.00 | 0.00 | 47 | 1010.2 |
| 20260508002602 | 11 | 352 | 1.6 | 4.8 | 0.00 | 0.00 | 0.00 | 44 | 1010.2 |
| 20260508002502 | 11 | 344 | 1.6 | 8.0 | 0.00 | 0.00 | 0.00 | 45 | 1010.2 |
| 20260508002402 | 11 | 344 | 1.6 | 8.0 | 0.00 | 0.00 | 0.00 | 45 | 1010.2 |
| 20260508002306 | 11 | 346 | 1.6 | 8.0 | 0.00 | 0.00 | 0.00 | 46 | 1010.2 |
| 20260508002223 | 11 | 346 | 1.6 | 8.0 | 0.00 | 0.00 | 0.00 | 46 | 1010.2 |
| 20260508002102 | 11 | 347 | 1.6 | 8.0 | 0.00 | 0.00 | 0.00 | 46 | 1010.2 |
| 20260508002002 | 11 | 345 | 1.6 | 8.0 | 0.00 | 0.00 | 0.00 | 45 | 1010.2 |
| 20260508001902 | 11 | 336 | 1.6 | 8.0 | 0.00 | 0.00 | 0.00 | 46 | 1010.3 |
| 20260508001802 | 11 | 330 | 1.6 | 8.0 | 0.00 | 0.00 | 0.00 | 45 | 1010.3 |
| 20260508001702 | 11 | 332 | 1.6 | 8.0 | 0.00 | 0.00 | 0.00 | 45 | 1010.2 |
| 20260508001623 | 11 | 337 | 1.6 | 8.0 | 0.00 | 0.00 | 0.00 | 45 | 1010.2 |
| 20260508001502 | 11 | 343 | 1.6 | 6.4 | 0.00 | 0.00 | 0.00 | 46 | 1010.2 |
| 20260508001402 | 11 | 343 | 1.6 | 6.4 | 0.00 | 0.00 | 0.00 | 45 | 1010.2 |
| 20260508001302 | 11 | 336 | 0.0 | 6.4 | 0.00 | 0.00 | 0.00 | 44 | 1010.2 |
| 20260508001223 | 11 | 319 | 0.0 | 6.4 | 0.00 | 0.00 | 0.00 | 45 | 1010.2 |
| 20260508001102 | 11 | 230 | 0.0 | 3.2 | 0.00 | 0.00 | 0.00 | 48 | 1010.2 |
| 20260508001002 | 11 | 231 | 0.0 | 3.2 | 0.00 | 0.00 | 0.00 | 45 | 1010.2 |
| 20260508000902 | 11 | 230 | 0.0 | 3.2 | 0.00 | 0.00 | 0.00 | 46 | 1010.2 |
| 20260508000802 | 11 | 230 | 0.0 | 3.2 | 0.00 | 0.00 | 0.00 | 44 | 1010.2 |
| 20260508000702 | 11 | 230 | 0.0 | 3.2 | 0.00 | 0.00 | 0.00 | 45 | 1010.2 |
| 20260508000602 | 11 | 229 | 0.0 | 3.2 | 0.00 | 0.00 | 0.00 | 44 | 1010.3 |
| 20260508000502 | 11 | 228 | 0.0 | 3.2 | 0.00 | 0.00 | 0.00 | 46 | 1010.3 |
| 20260508000404 | 11 | 228 | 0.0 | 3.2 | 0.00 | 0.00 | 0.00 | 45 | 1010.3 |
| 20260508000304 | 11 | 236 | 0.0 | 3.2 | 0.00 | 0.00 | 0.00 | 45 | 1010.3 |
| 20260508000204 | 11 | 238 | 0.0 | 3.2 | 0.00 | 0.00 | 0.00 | 44 | 1010.3 |
| 20260508000002 | 11 | 248 | 0.0 | 3.2 | 0.00 | 0.00 | 0.00 | 44 | 1010.2 |
| 20260507235902 | 11 | 248 | 0.0 | 3.2 | 0.00 | 0.00 | 0.00 | 44 | 1010.1 |
| 20260507235802 | 11 | 265 | 0.0 | 1.6 | 0.00 | 0.00 | 0.00 | 46 | 1010.1 |
| 20260507235723 | 11 | 268 | 0.0 | 1.6 | 0.00 | 0.00 | 0.00 | 45 | 1010.2 |
| 20260507235602 | 11 | 274 | 0.0 | 1.6 | 0.00 | 0.00 | 0.00 | 45 | 1010.1 |
| 20260507235502 | 11 | 276 | 0.0 | 1.6 | 0.00 | 0.00 | 0.00 | 44 | 1010.1 |
| 20260507235402 | 11 | 278 | 0.0 | 1.6 | 0.00 | 0.00 | 0.00 | 43 | 1010.1 |
| 20260507235323 | 11 | 278 | 0.0 | 1.6 | 0.00 | 0.00 | 0.00 | 43 | 1010.1 |
| 20260507235202 | 11 | 303 | 0.0 | 1.6 | 0.00 | 0.00 | 0.00 | 44 | 1010.1 |
| 20260507235123 | 11 | 320 | 0.0 | 4.8 | 0.00 | 0.00 | 0.00 | 44 | 1010.1 |
| 20260507235002 | 11 | 326 | 0.0 | 4.8 | 0.00 | 0.00 | 0.00 | 44 | 1010.1 |
| 20260507234902 | 11 | 315 | 0.0 | 4.8 | 0.00 | 0.00 | 0.00 | 43 | 1010.1 |
| 20260507234802 | 11 | 301 | 0.0 | 4.8 | 0.00 | 0.00 | 0.00 | 43 | 1010.1 |
| 20260507234702 | 11 | 287 | 0.0 | 4.8 | 0.00 | 0.00 | 0.00 | 44 | 1010.1 |
| 20260507234623 | 11 | 288 | 0.0 | 4.8 | 0.00 | 0.00 | 0.00 | 44 | 1010.1 |
| 20260507234502 | 11 | 280 | 0.0 | 4.8 | 0.00 | 0.00 | 0.00 | 46 | 1010.1 |
| 20260507234402 | 11 | 279 | 0.0 | 4.8 | 0.00 | 0.00 | 0.00 | 45 | 1010.1 |
| 20260507234302 | 11 | 281 | 0.0 | 4.8 | 0.00 | 0.00 | 0.00 | 45 | 1010.1 |
| 20260507234202 | 11 | 274 | 0.0 | 4.8 | 0.00 | 0.00 | 0.00 | 43 | 1010.1 |
| 20260507234102 | 11 | 248 | 0.0 | 4.8 | 0.00 | 0.00 | 0.00 | 44 | 1010.1 |
| 20260507234002 | 11 | 244 | 0.0 | 4.8 | 0.00 | 0.00 | 0.00 | 43 | 1010.1 |
| 20260507233902 | 11 | 242 | 0.0 | 4.8 | 0.00 | 0.00 | 0.00 | 43 | 1010.2 |
| 20260507233802 | 11 | 240 | 0.0 | 4.8 | 0.00 | 0.00 | 0.00 | 43 | 1010.2 |
| 20260507233702 | 11 | 239 | 0.0 | 4.8 | 0.00 | 0.00 | 0.00 | 44 | 1010.2 |
| 20260507233602 | 11 | 239 | 0.0 | 4.8 | 0.00 | 0.00 | 0.00 | 43 | 1010.2 |
| 20260507233523 | 11 | 235 | 0.0 | 4.8 | 0.00 | 0.00 | 0.00 | 44 | 1010.2 |
| 20260507233402 | 11 | 234 | 0.0 | 4.8 | 0.00 | 0.00 | 0.00 | 43 | 1010.2 |
| 20260507233323 | 11 | 233 | 0.0 | 4.8 | 0.00 | 0.00 | 0.00 | 43 | 1010.2 |
| 20260507233202 | 11 | 224 | 0.0 | 4.8 | 0.00 | 0.00 | 0.00 | 43 | 1010.2 |
| 20260507233102 | 11 | 239 | 0.0 | 4.8 | 0.00 | 0.00 | 0.00 | 43 | 1010.2 |
| 20260507233023 | 11 | 256 | 0.0 | 4.8 | 0.00 | 0.00 | 0.00 | 43 | 1010.2 |
| 20260507232924 | 11 | 267 | 0.0 | 4.8 | 0.00 | 0.00 | 0.00 | 44 | 1010.2 |
| 20260507232802 | 11 | 331 | 0.0 | 3.2 | 0.00 | 0.00 | 0.00 | 44 | 1010.2 |
| 20260507232702 | 11 | 331 | 0.0 | 3.2 | 0.00 | 0.00 | 0.00 | 43 | 1010.2 |
| 20260507232602 | 11 | 331 | 0.0 | 3.2 | 0.00 | 0.00 | 0.00 | 43 | 1010.2 |
| 20260507232502 | 11 | 327 | 0.0 | 3.2 | 0.00 | 0.00 | 0.00 | 42 | 1010.2 |
| 20260507232402 | 11 | 302 | 0.0 | 3.2 | 0.00 | 0.00 | 0.00 | 43 | 1010.2 |
| 20260507232306 | 11 | 267 | 0.0 | 3.2 | 0.00 | 0.00 | 0.00 | 43 | 1010.2 |
| 20260507232202 | 11 | 267 | 0.0 | 3.2 | 0.00 | 0.00 | 0.00 | 42 | 1010.2 |
| 20260507232102 | 11 | 234 | 0.0 | 3.2 | 0.00 | 0.00 | 0.00 | 42 | 1010.2 |
| 20260507232002 | 11 | 240 | 0.0 | 3.2 | 0.00 | 0.00 | 0.00 | 43 | 1010.2 |
| 20260507231902 | 11 | 240 | 0.0 | 3.2 | 0.00 | 0.00 | 0.00 | 43 | 1010.2 |
| 20260507231823 | 11 | 275 | 0.0 | 3.2 | 0.00 | 0.00 | 0.00 | 43 | 1010.2 |
| 20260507231702 | 11 | 293 | 0.0 | 3.2 | 0.00 | 0.00 | 0.00 | 43 | 1010.3 |
| 20260507231602 | 11 | 300 | 0.0 | 3.2 | 0.00 | 0.00 | 0.00 | 42 | 1010.3 |
| 20260507231502 | 11 | 302 | 0.0 | 3.2 | 0.00 | 0.00 | 0.00 | 42 | 1010.2 |
| 20260507231402 | 11 | 313 | 0.0 | 3.2 | 0.00 | 0.00 | 0.00 | 43 | 1010.2 |
| 20260507231302 | 11 | 331 | 0.0 | 3.2 | 0.00 | 0.00 | 0.00 | 43 | 1010.2 |
| 20260507231223 | 11 | 331 | 0.0 | 3.2 | 0.00 | 0.00 | 0.00 | 43 | 1010.2 |
| 20260507231102 | 11 | 331 | 0.0 | 3.2 | 0.00 | 0.00 | 0.00 | 43 | 1010.3 |
| 20260507231002 | 12 | 330 | 0.0 | 3.2 | 0.00 | 0.00 | 0.00 | 42 | 1010.3 |
| 20260507230902 | 12 | 341 | 0.0 | 4.8 | 0.00 | 0.00 | 0.00 | 42 | 1010.3 |
| 20260507230824 | 12 | 341 | 0.0 | 4.8 | 0.00 | 0.00 | 0.00 | 42 | 1010.3 |
| 20260507230702 | 12 | 332 | 0.0 | 4.8 | 0.00 | 0.00 | 0.00 | 43 | 1010.3 |
| 20260507230602 | 12 | 332 | 0.0 | 4.8 | 0.00 | 0.00 | 0.00 | 43 | 1010.3 |
| 20260507230503 | 11 | 341 | 1.6 | 4.8 | 0.00 | 0.00 | 0.00 | 42 | 1010.4 |
| 20260507230423 | 12 | 342 | 1.6 | 4.8 | 0.00 | 0.00 | 0.00 | 42 | 1010.4 |
| 20260507230302 | 12 | 343 | 1.6 | 4.8 | 0.00 | 0.00 | 0.00 | 42 | 1010.3 |
| 20260507230202 | 12 | 341 | 1.6 | 4.8 | 0.00 | 0.00 | 0.00 | 43 | 1010.4 |
| 20260507230002 | 12 | 347 | 1.6 | 4.8 | 0.00 | 0.00 | 0.00 | 42 | 1010.4 |
| 20260507225902 | 12 | 334 | 1.6 | 4.8 | 0.00 | 0.00 | 0.00 | 43 | 1010.4 |
| 20260507225802 | 12 | 325 | 1.6 | 4.8 | 0.00 | 0.00 | 0.00 | 43 | 1010.4 |
| 20260507225702 | 12 | 331 | 1.6 | 4.8 | 0.00 | 0.00 | 0.00 | 42 | 1010.3 |
| 20260507225602 | 12 | 331 | 1.6 | 4.8 | 0.00 | 0.00 | 0.00 | 41 | 1010.3 |
| 20260507225502 | 12 | 315 | 1.6 | 4.8 | 0.00 | 0.00 | 0.00 | 43 | 1010.4 |
| 20260507225402 | 12 | 277 | 1.6 | 6.4 | 0.00 | 0.00 | 0.00 | 43 | 1010.3 |
| 20260507225305 | 12 | 275 | 1.6 | 6.4 | 0.00 | 0.00 | 0.00 | 41 | 1010.3 |
| 20260507225202 | 12 | 275 | 1.6 | 6.4 | 0.00 | 0.00 | 0.00 | 41 | 1010.4 |
| 20260507225123 | 12 | 269 | 1.6 | 6.4 | 0.00 | 0.00 | 0.00 | 43 | 1010.4 |
| 20260507225002 | 12 | 265 | 1.6 | 6.4 | 0.00 | 0.00 | 0.00 | 42 | 1010.4 |
| 20260507224902 | 12 | 259 | 1.6 | 6.4 | 0.00 | 0.00 | 0.00 | 41 | 1010.4 |
| 20260507224802 | 12 | 262 | 1.6 | 6.4 | 0.00 | 0.00 | 0.00 | 41 | 1010.4 |
| 20260507224702 | 12 | 262 | 1.6 | 6.4 | 0.00 | 0.00 | 0.00 | 41 | 1010.4 |
| 20260507224602 | 12 | 260 | 1.6 | 6.4 | 0.00 | 0.00 | 0.00 | 40 | 1010.4 |
| 20260507224502 | 12 | 250 | 1.6 | 6.4 | 0.00 | 0.00 | 0.00 | 40 | 1010.5 |
| 20260507224403 | 12 | 291 | 1.6 | 4.8 | 0.00 | 0.00 | 0.00 | 42 | 1010.4 |
| 20260507224323 | 12 | 293 | 1.6 | 4.8 | 0.00 | 0.00 | 0.00 | 42 | 1010.4 |
| 20260507224202 | 12 | 258 | 1.6 | 4.8 | 0.00 | 0.00 | 0.00 | 41 | 1010.4 |
| 20260507224102 | 12 | 236 | 0.0 | 4.8 | 0.00 | 0.00 | 0.00 | 43 | 1010.4 |
| 20260507224002 | 12 | 220 | 1.6 | 11.3 | 0.00 | 0.00 | 0.00 | 42 | 1010.4 |
| 20260507223923 | 12 | 225 | 1.6 | 12.9 | 0.00 | 0.00 | 0.00 | 41 | 1010.5 |
| 20260507223802 | 12 | 230 | 1.6 | 12.9 | 0.00 | 0.00 | 0.00 | 42 | 1010.5 |
| 20260507223723 | 12 | 232 | 1.6 | 12.9 | 0.00 | 0.00 | 0.00 | 42 | 1010.6 |
| 20260507223602 | 12 | 231 | 1.6 | 12.9 | 0.00 | 0.00 | 0.00 | 40 | 1010.6 |
| 20260507223502 | 12 | 230 | 1.6 | 12.9 | 0.00 | 0.00 | 0.00 | 41 | 1010.6 |
| 20260507223402 | 12 | 230 | 1.6 | 12.9 | 0.00 | 0.00 | 0.00 | 41 | 1010.6 |
| 20260507223323 | 12 | 230 | 1.6 | 12.9 | 0.00 | 0.00 | 0.00 | 43 | 1010.6 |
| 20260507223202 | 12 | 236 | 1.6 | 12.9 | 0.00 | 0.00 | 0.00 | 42 | 1010.5 |
| 20260507223102 | 12 | 241 | 3.2 | 12.9 | 0.00 | 0.00 | 0.00 | 41 | 1010.5 |
| 20260507223002 | 12 | 257 | 1.6 | 12.9 | 0.00 | 0.00 | 0.00 | 40 | 1010.5 |
| 20260507222902 | 12 | 306 | 1.6 | 9.7 | 0.00 | 0.00 | 0.00 | 42 | 1010.5 |
| 20260507222802 | 12 | 326 | 1.6 | 8.0 | 0.00 | 0.00 | 0.00 | 41 | 1010.5 |
| 20260507222723 | 12 | 324 | 1.6 | 8.0 | 0.00 | 0.00 | 0.00 | 42 | 1010.4 |
| 20260507222602 | 12 | 336 | 1.6 | 8.0 | 0.00 | 0.00 | 0.00 | 43 | 1010.3 |
| 20260507222502 | 12 | 344 | 1.6 | 6.4 | 0.00 | 0.00 | 0.00 | 41 | 1010.3 |
| 20260507222423 | 12 | 344 | 1.6 | 6.4 | 0.00 | 0.00 | 0.00 | 40 | 1010.4 |
| 20260507222305 | 12 | 346 | 1.6 | 6.4 | 0.00 | 0.00 | 0.00 | 41 | 1010.4 |
| 20260507222223 | 12 | 346 | 1.6 | 6.4 | 0.00 | 0.00 | 0.00 | 40 | 1010.4 |
| 20260507222102 | 12 | 350 | 1.6 | 6.4 | 0.00 | 0.00 | 0.00 | 42 | 1010.5 |
| 20260507222002 | 12 | 353 | 1.6 | 6.4 | 0.00 | 0.00 | 0.00 | 41 | 1010.5 |
| 20260507221902 | 12 | 343 | 0.0 | 3.2 | 0.00 | 0.00 | 0.00 | 43 | 1010.5 |
| 20260507221802 | 12 | 346 | 0.0 | 4.8 | 0.00 | 0.00 | 0.00 | 41 | 1010.4 |
| 20260507221702 | 12 | 350 | 0.0 | 4.8 | 0.00 | 0.00 | 0.00 | 43 | 1010.4 |
| 20260507221602 | 12 | 353 | 1.6 | 4.8 | 0.00 | 0.00 | 0.00 | 42 | 1010.4 |
| 20260507221502 | 12 | 352 | 1.6 | 4.8 | 0.00 | 0.00 | 0.00 | 42 | 1010.4 |
| 20260507221402 | 12 | 352 | 1.6 | 4.8 | 0.00 | 0.00 | 0.00 | 42 | 1010.4 |
| 20260507221302 | 12 | 351 | 1.6 | 4.8 | 0.00 | 0.00 | 0.00 | 42 | 1010.6 |
| 20260507221202 | 12 | 350 | 1.6 | 4.8 | 0.00 | 0.00 | 0.00 | 42 | 1010.6 |
| 20260507221102 | 12 | 347 | 1.6 | 6.4 | 0.00 | 0.00 | 0.00 | 42 | 1010.5 |
| 20260507221002 | 12 | 348 | 1.6 | 6.4 | 0.00 | 0.00 | 0.00 | 41 | 1010.6 |
| 20260507220902 | 12 | 348 | 1.6 | 6.4 | 0.00 | 0.00 | 0.00 | 40 | 1010.6 |
| 20260507220802 | 12 | 347 | 1.6 | 6.4 | 0.00 | 0.00 | 0.00 | 41 | 1010.6 |
| 20260507220723 | 12 | 347 | 1.6 | 6.4 | 0.00 | 0.00 | 0.00 | 41 | 1010.6 |
| 20260507220602 | 12 | 341 | 1.6 | 6.4 | 0.00 | 0.00 | 0.00 | 41 | 1010.6 |
| 20260507220502 | 12 | 324 | 1.6 | 6.4 | 0.00 | 0.00 | 0.00 | 41 | 1010.6 |
| 20260507220402 | 12 | 297 | 1.6 | 11.3 | 0.00 | 0.00 | 0.00 | 42 | 1010.6 |
| 20260507220302 | 12 | 295 | 1.6 | 11.3 | 0.00 | 0.00 | 0.00 | 41 | 1010.6 |
| 20260507220202 | 12 | 288 | 1.6 | 11.3 | 0.00 | 0.00 | 0.00 | 41 | 1010.6 |
| 20260507220123 | 12 | 282 | 1.6 | 11.3 | 0.00 | 0.00 | 0.00 | 42 | 1010.6 |
| 20260507220002 | 12 | 256 | 1.6 | 11.3 | 0.00 | 0.00 | 0.00 | 43 | 1010.6 |
| 20260507215902 | 12 | 260 | 1.6 | 11.3 | 0.00 | 0.00 | 0.00 | 42 | 1010.6 |
| 20260507215823 | 12 | 261 | 1.6 | 11.3 | 0.00 | 0.00 | 0.00 | 42 | 1010.6 |
| 20260507215703 | 12 | 298 | 1.6 | 11.3 | 0.00 | 0.00 | 0.00 | 41 | 1010.6 |
| 20260507215602 | 12 | 306 | 1.6 | 11.3 | 0.00 | 0.00 | 0.00 | 42 | 1010.7 |
| 20260507215502 | 12 | 314 | 1.6 | 11.3 | 0.00 | 0.00 | 0.00 | 42 | 1010.7 |
| 20260507215424 | 12 | 331 | 1.6 | 8.0 | 0.00 | 0.00 | 0.00 | 39 | 1010.6 |
| 20260507215306 | 12 | 320 | 1.6 | 8.0 | 0.00 | 0.00 | 0.00 | 40 | 1010.6 |
| 20260507215202 | 12 | 312 | 1.6 | 8.0 | 0.00 | 0.00 | 0.00 | 42 | 1010.7 |
| 20260507215123 | 12 | 309 | 1.6 | 8.0 | 0.00 | 0.00 | 0.00 | 42 | 1010.7 |
| 20260507215002 | 12 | 317 | 1.6 | 8.0 | 0.00 | 0.00 | 0.00 | 40 | 1010.7 |